GFSWCAN_sfc_temp_000.txt.gz
Temp
51 50 50 50 50 50 51 51 51 52 52 52 51 51 51 51 52 58 65 69 63 55 60 64 65 60 61 60 51 57 54 54 45 37 36 39 35 42 43 47 43 40 36 34 33 32 31 60 57 39 48 53 52 50
51 50 50 49 49 50 50 50 50 51 51 51 51 51 51 51 52 53 60 66 67 57 60 64 65 68 67 66 59 57 53 55 52 44 40 39 35 36 35 34 51 38 44 41 44 43 55 59 56 58 57 52 52 51
50 50 50 50 49 49 50 50 50 50 50 50 50 51 51 51 52 54 60 61 57 41 51 55 57 66 70 67 70 52 55 60 57 59 48 37 34 42 34 36 37 47 53 43 43 50 54 55 58 58 58 53 54 55
50 50 50 49 49 49 49 49 49 49 49 50 50 50 50 51 51 52 55 61 55 44 34 45 63 60 68 68 66 65 61 61 59 55 41 36 34 43 36 41 40 46 48 43 42 49 53 54 56 57 55 56 53 53
50 50 50 50 50 49 49 48 48 48 49 49 50 50 50 50 51 52 54 57 57 50 38 41 52 63 65 65 63 63 60 57 52 44 36 36 43 41 43 39 38 47 44 40 39 51 49 51 57 58 54 51 53 55
49 49 49 49 50 50 49 48 48 48 48 49 49 50 50 50 50 50 45 53 54 53 40 34 47 50 60 62 60 59 59 56 53 48 39 44 49 40 34 37 48 55 56 57 51 58 57 58 58 57 52 50 56 55
49 49 49 48 48 48 48 48 48 48 48 48 49 49 50 49 51 46 43 48 52 53 35 36 40 46 54 55 57 56 57 52 50 45 40 39 40 43 34 35 49 53 56 57 59 57 49 53 51 55 56 57 57 56
48 49 48 48 48 48 47 48 48 48 48 48 49 49 49 49 48 45 47 49 50 44 38 35 34 37 50 43 41 48 43 42 42 41 39 38 43 38 35 47 53 56 58 59 55 56 55 55 56 56 57 55 52 49
47 48 48 47 47 47 47 47 48 48 48 48 48 49 48 46 41 43 48 48 48 43 35 32 33 33 49 41 39 38 40 33 41 36 39 40 40 36 44 50 54 56 55 52 53 54 54 52 52 53 53 52 48 46
47 47 47 47 47 47 47 47 48 48 48 49 50 44 36 41 47 47 44 38 37 36 36 32 40 36 48 38 36 36 36 33 32 37 47 37 39 50 53 55 56 54 54 54 46 45 46 46 50 50 50 50 46 41
47 47 46 46 46 46 47 47 47 48 47 50 43 38 45 47 45 42 36 34 34 33 34 37 38 39 46 35 34 36 33 35 31 39 38 37 37 46 55 55 55 55 55 54 54 53 53 51 50 47 44 42 38 37
47 47 46 46 46 47 47 47 48 48 48 48 48 50 47 44 40 34 33 36 34 35 38 36 39 41 39 46 38 38 34 36 30 43 33 32 43 52 52 52 53 55 54 52 53 51 51 51 48 42 42 39 36 35
46 46 46 46 46 47 47 47 48 47 49 53 46 38 41 38 31 29 29 32 34 37 35 36 35 38 39 38 35 34 30 31 37 32 33 39 48 51 52 53 52 52 45 42 48 49 49 47 43 35 34 35 34 33
46 46 46 46 46 46 46 47 47 49 50 43 35 30 33 31 34 37 37 33 34 35 36 37 35 36 36 32 33 29 36 36 29 29 33 42 46 49 50 48 47 46 38 38 40 41 39 36 34 34 34 32 32 32
46 46 46 46 46 46 46 46 47 53 47 38 36 30 32 39 36 34 36 37 36 39 39 37 37 38 34 31 34 33 29 28 32 33 40 43 44 46 45 46 45 37 35 36 41 38 34 34 33 33 34 33 32 32
45 45 45 46 46 46 46 47 50 51 41 39 34 32 36 34 32 32 33 34 39 39 39 38 34 31 30 32 30 28 29 29 35 39 41 45 44 43 42 41 39 40 38 39 40 38 37 34 34 35 34 33 32 32
45 44 45 45 45 46 46 48 46 37 36 30 33 37 34 34 33 34 34 36 44 36 32 36 29 29 38 31 30 36 32 36 38 41 44 44 43 42 43 40 36 38 39 39 39 38 37 36 34 33 32 32 33 32
44 46 45 45 47 46 48 46 39 35 30 36 33 34 35 36 35 35 36 40 38 37 37 33 39 31 29 28 30 36 39 41 42 42 43 44 44 44 45 42 43 43 41 40 35 35 36 34 33 33 33 34 33 33
46 47 45 45 48 44 37 38 41 32 34 38 38 39 38 37 39 40 39 38 42 43 38 35 30 29 31 36 35 36 37 38 39 41 43 44 43 42 41 42 41 42 41 40 37 37 35 35 35 35 36 37 35 35
45 44 44 45 45 40 33 35 43 35 32 37 38 36 37 36 38 34 34 35 37 35 31 30 32 35 36 39 42 40 41 42 41 37 39 42 44 43 42 42 42 42 42 41 37 34 33 33 34 35 36 37 35 34
45 44 44 45 42 42 39 36 34 34 37 37 40 38 36 38 35 33 33 37 32 32 32 36 35 39 42 43 44 43 42 42 40 39 38 38 42 42 42 42 42 42 39 38 33 34 33 33 35 36 34 33 33 33
44 44 39 39 34 34 35 41 38 39 36 36 36 37 33 31 32 33 38 32 33 36 39 38 40 42 42 41 43 44 43 43 42 41 40 40 38 39 39 40 39 36 37 34 34 33 33 34 34 34 33 33 33 32
42 41 36 35 30 30 31 41 33 35 29 31 33 31 31 32 36 41 32 36 37 42 43 43 43 43 42 43 43 43 43 41 40 41 39 40 40 39 38 38 36 34 34 34 35 34 33 35 33 33 33 32 32 32
40 33 31 30 30 29 32 30 34 33 33 31 30 28 32 33 38 33 29 33 38 42 42 42 43 41 42 41 41 42 43 43 41 40 40 38 36 36 37 35 35 35 34 34 34 34 33 33 32 32 32 32 32 32
30 29 30 28 32 29 27 28 29 30 27 30 28 28 31 35 29 29 28 34 36 37 39 41 41 41 39 39 40 41 40 42 38 35 36 36 33 33 34 34 35 34 34 33 33 33 32 32 32 32 32 31 31 31
25 29 28 30 30 28 30 26 28 28 29 28 29 34 33 30 26 25 32 36 36 37 33 33 34 37 39 41 40 39 40 41 37 33 35 34 33 32 32 32 32 34 36 34 33 32 32 32 32 32 32 32 32 31
25 28 32 39 37 35 31 33 34 31 28 27 30 30 29 22 23 32 40 42 41 42 44 42 41 41 40 41 42 41 40 37 35 34 34 34 34 35 35 33 32 35 36 34 33 33 33 33 32 32 32 32 32 32
31 33 27 31 32 35 29 30 29 28 30 35 33 27 25 26 29 38 41 43 42 43 42 42 41 41 40 39 39 36 34 34 34 34 34 34 35 34 34 34 34 31 35 34 33 32 33 33 33 33 32 32 32 32
30 35 34 27 30 31 30 29 30 34 38 35 30 29 31 37 39 39 41 41 39 37 35 35 35 34 35 36 34 35 35 33 31 29 28 29 32 34 34 34 33 33 33 32 32 32 33 33 32 32 32 32 31 31
31 35 31 30 27 27 32 35 34 35 37 36 36 34 34 36 38 41 40 37 34 33 33 33 32 32 31 31 31 32 34 33 32 31 28 28 30 32 32 32 32 32 32 32 32 30 30 31 30 30 30 29 29 28
36 34 31 31 29 33 34 35 34 33 33 34 34 32 32 34 36 37 36 35 34 32 31 31 32 32 31 30 30 29 30 32 32 32 31 31 32 32 32 32 32 32 32 32 31 30 30 29 30 29 27 27 27 26
32 30 29 26 29 34 32 31 32 31 32 32 31 32 32 31 30 31 28 28 28 28 29 29 28 28 30 30 32 32 30 30 28 28 29 30 32 32 32 32 32 32 32 31 31 30 29 29 29 28 27 26 26 25
31 31 31 29 29 29 32 29 29 30 31 30 31 32 32 31 28 25 28 27 25 25 24 25 27 28 30 29 30 30 29 27 26 25 25 24 23 25 28 30 32 31 31 31 30 29 28 28 27 27 27 25 24 23

GFSWCAN_sfc_temp_003.txt.gz
Temp
51 50 51 51 51 51 51 51 51 51 51 51 51 51 52 52 52 54 55 60 54 44 49 56 57 51 51 46 37 46 44 41 36 33 34 32 34 32 31 39 33 31 27 29 29 31 26 51 48 36 42 44 49 45
51 50 50 50 50 50 50 51 51 51 51 51 51 51 51 51 52 52 52 59 58 50 50 57 58 58 58 56 51 47 45 46 42 34 33 34 33 34 33 32 44 34 37 31 35 33 45 51 49 51 53 50 46 45
50 50 50 49 49 49 50 50 50 50 50 50 50 51 51 51 52 53 53 55 52 40 47 48 50 58 63 61 61 43 41 52 48 49 39 36 34 36 33 34 34 43 47 38 36 45 49 50 53 54 53 48 51 49
49 50 50 49 49 49 49 49 49 49 49 50 50 50 50 51 51 52 52 55 52 43 34 43 56 55 63 61 60 58 56 55 52 46 36 34 34 42 35 39 38 42 42 39 39 46 48 50 49 51 51 49 48 48
49 49 49 50 50 49 49 49 48 48 49 49 49 50 50 51 51 51 52 54 55 49 37 38 48 56 60 59 58 58 54 51 43 38 34 35 37 38 36 36 35 45 43 38 37 48 46 48 49 51 49 47 47 47
49 49 49 49 49 49 49 48 48 48 49 49 50 50 50 50 50 50 44 50 54 53 40 35 46 47 52 55 54 54 53 50 48 42 36 40 46 40 33 36 45 51 51 51 46 51 51 49 51 52 50 50 51 50
49 49 49 48 48 48 48 49 49 48 48 49 49 49 50 49 51 47 43 48 52 52 36 35 36 42 46 49 49 48 50 47 46 42 38 38 39 42 33 36 47 50 50 51 53 52 47 47 44 51 52 52 52 51
48 48 48 48 48 48 48 48 48 49 48 48 49 49 49 50 49 45 47 49 51 45 38 35 34 35 45 37 35 40 36 39 41 40 37 36 39 36 33 43 48 50 51 52 52 51 49 49 49 51 52 51 48 45
48 48 47 47 47 47 47 48 48 48 49 49 49 49 47 45 41 43 48 48 47 43 36 33 33 33 44 38 36 36 38 33 38 34 36 38 34 34 39 43 48 49 46 46 49 49 49 47 47 47 47 47 44 42
47 47 47 47 47 47 47 47 48 48 48 49 47 42 35 40 48 47 44 37 36 35 35 33 36 34 42 34 33 34 33 32 31 34 38 33 34 45 48 50 51 47 48 48 39 38 41 41 43 44 43 42 40 37
47 47 47 47 47 47 47 47 48 49 49 45 38 35 42 47 44 39 33 32 33 31 32 34 35 34 40 33 33 34 32 32 28 27 27 24 28 40 47 47 48 48 50 48 46 47 47 45 44 41 36 35 32 31
47 47 47 47 47 47 47 47 48 46 45 45 44 45 43 40 35 33 32 33 31 29 33 33 35 38 35 40 33 33 30 30 24 30 26 26 31 45 45 45 46 45 44 44 45 43 43 44 40 36 34 33 30 31
47 47 47 46 46 47 47 48 48 47 47 47 40 34 37 34 30 26 24 30 28 33 34 34 33 34 35 35 32 32 28 28 28 27 25 27 38 43 43 43 43 43 37 36 40 40 40 39 38 30 30 27 33 32
46 46 46 46 46 47 47 47 47 47 42 33 31 23 25 25 24 29 30 32 33 33 34 33 33 31 32 30 31 26 26 27 20 16 20 27 36 41 42 41 41 40 33 33 34 34 32 30 29 27 24 32 31 28
45 46 46 46 46 46 46 47 47 45 38 31 29 21 22 29 32 32 33 33 33 35 34 33 32 31 24 23 23 22 18 24 20 19 23 29 36 38 38 40 40 31 27 28 34 31 30 29 33 34 34 33 31 30
45 45 44 46 46 46 46 46 46 44 33 31 28 23 27 26 30 31 32 33 35 34 32 30 26 21 20 21 17 18 17 18 21 24 27 30 35 36 37 35 35 34 34 34 34 32 32 27 32 34 34 33 33 31
46 40 45 46 46 46 46 43 36 32 29 26 23 30 32 30 32 31 32 32 36 29 22 23 18 21 25 17 17 25 20 22 24 26 28 34 35 35 35 35 32 32 34 33 33 32 32 29 29 31 32 32 31 29
41 43 45 46 45 45 43 40 31 28 23 26 22 24 25 27 32 32 33 33 34 29 26 24 27 18 15 14 16 21 23 24 27 27 29 35 35 35 37 35 38 35 34 34 32 32 30 25 28 30 32 31 28 28
43 43 45 45 44 36 30 31 35 26 25 26 27 27 27 26 27 28 30 30 29 30 26 22 17 16 20 21 19 23 24 24 29 31 32 35 34 34 35 35 34 34 33 33 32 34 30 31 33 34 33 29 29 30
45 44 44 44 45 32 29 30 36 29 25 28 26 25 26 25 25 31 31 32 26 24 21 20 20 25 23 27 27 26 28 30 30 31 33 36 36 34 35 35 36 36 36 35 33 28 28 31 32 32 33 32 32 31
42 41 43 42 37 38 31 27 26 31 27 26 27 27 24 25 23 27 30 28 30 28 21 27 30 34 32 31 32 31 35 34 35 33 33 33 36 36 36 36 35 32 27 29 32 33 32 33 34 33 33 32 32 32
40 43 36 37 33 32 28 30 27 28 25 24 24 25 20 18 19 21 26 24 24 25 29 33 33 33 34 34 36 35 35 35 34 30 29 30 32 34 34 35 32 31 32 34 34 34 34 35 34 33 32 32 31 30
41 39 34 33 29 29 24 30 23 26 18 19 22 19 18 18 23 28 19 26 27 32 36 34 36 36 35 36 34 35 35 34 34 31 30 30 31 29 32 32 30 33 33 34 34 34 33 35 33 32 32 31 28 30
40 33 29 27 25 17 25 28 28 23 21 19 18 15 20 21 24 19 18 20 30 29 31 34 32 33 31 32 30 32 33 31 29 28 28 27 29 31 32 33 33 34 34 34 34 33 33 32 31 30 31 30 30 30
28 28 29 23 25 24 20 19 24 18 14 17 15 14 18 21 16 14 16 22 23 29 30 31 30 31 29 25 25 30 31 30 28 27 27 26 31 33 32 33 33 34 34 33 32 32 32 32 29 28 28 29 29 29
24 25 24 20 23 20 20 12 15 16 15 14 17 20 20 16 12 14 21 21 22 24 25 27 27 24 27 31 29 27 29 27 26 25 27 31 31 31 30 29 31 33 33 33 32 32 32 27 26 27 27 30 30 29
23 19 24 29 27 25 19 20 22 18 14 13 15 15 17 15 12 20 25 26 27 27 29 29 30 30 30 30 28 28 26 25 27 31 32 33 33 33 31 30 30 31 33 34 33 33 32 30 29 30 31 30 30 29
23 23 20 23 22 23 16 16 15 16 17 23 20 15 15 16 18 25 30 30 29 30 31 33 32 33 32 31 27 25 29 31 33 33 32 32 33 33 33 33 34 32 32 33 32 33 33 32 32 32 31 30 29 30
22 25 25 18 18 19 20 19 20 24 27 25 23 22 21 25 25 26 28 30 31 31 27 27 31 32 32 32 25 30 32 32 30 28 27 28 28 27 27 31 32 32 31 32 32 31 31 32 32 32 31 26 27 30
20 28 20 16 16 16 22 26 23 25 29 32 33 31 30 32 36 34 34 35 34 34 33 29 27 32 31 29 23 29 31 32 32 31 28 19 21 28 31 31 31 33 33 32 32 27 30 31 31 30 28 27 25 24
26 25 20 23 22 28 30 32 32 25 24 28 32 30 30 32 34 27 24 29 29 32 31 30 30 31 29 28 27 26 26 29 25 27 27 28 30 31 31 31 31 31 30 27 27 27 28 28 29 28 26 26 25 24
22 23 24 22 25 29 29 25 24 25 27 26 29 31 31 31 28 25 22 24 26 27 26 26 26 25 27 25 28 28 25 21 20 21 18 16 19 23 27 30 31 29 27 26 26 26 27 27 27 26 25 23 22 20
21 23 27 26 22 17 21 22 20 20 24 26 27 29 28 27 26 21 22 24 22 20 20 21 22 21 25 24 24 24 21 21 20 22 21 19 18 18 19 19 22 26 28 27 26 26 25 24 22 22 22 20 17 14

GFSWCAN_sfc_temp_006.txt.gz
Temp
51 50 50 50 51 51 51 51 51 51 51 51 51 51 51 52 52 54 54 56 52 43 47 53 55 50 48 44 36 44 43 39 35 33 31 29 32 31 29 37 33 32 27 29 28 26 27 47 47 37 41 42 47 48
52 50 50 50 50 50 50 50 50 50 50 50 51 51 51 52 52 53 51 56 55 48 49 54 55 57 56 54 48 44 44 43 39 34 34 29 32 33 28 32 40 34 36 31 33 32 43 46 48 47 49 48 46 46
50 50 50 50 49 50 50 50 50 50 50 50 50 50 51 51 52 52 51 53 49 40 45 47 50 55 60 57 57 42 38 49 44 44 36 35 33 35 33 34 34 41 45 35 36 43 46 47 52 52 49 45 48 47
49 49 50 49 49 49 49 49 49 50 50 50 50 50 50 50 51 52 50 52 49 42 34 43 54 53 59 58 56 54 54 52 51 45 36 34 34 41 35 40 37 42 42 38 39 44 47 48 48 48 50 48 47 47
48 48 48 49 49 49 49 49 48 48 49 49 49 50 50 50 51 51 51 52 53 48 37 39 47 54 57 58 56 55 52 48 39 37 34 35 36 37 35 35 35 43 43 37 37 47 45 47 49 49 46 44 43 42
49 48 48 48 48 49 49 48 48 48 48 49 49 50 50 50 51 50 45 49 52 54 40 35 46 45 50 52 52 50 50 47 46 40 35 38 45 40 34 34 45 48 51 52 46 51 48 49 47 47 45 44 46 47
48 48 48 48 48 48 48 49 48 48 48 49 49 49 49 49 51 47 44 48 52 52 37 36 36 40 44 47 45 45 47 45 45 42 37 38 39 42 33 36 47 50 49 52 53 48 43 44 42 46 47 49 48 48
48 48 48 47 47 47 47 48 49 49 48 48 49 49 49 49 49 45 47 49 51 46 39 35 35 36 44 36 34 39 36 38 41 40 37 36 38 35 34 46 46 47 49 49 48 46 45 45 47 46 48 48 45 42
47 47 47 47 47 47 47 48 48 49 48 48 48 49 47 45 41 43 47 47 46 44 36 33 33 33 43 38 36 35 36 33 37 33 35 37 33 34 39 41 43 45 43 45 45 44 45 43 43 45 45 43 41 39
47 47 47 47 47 47 47 47 48 48 48 48 47 42 35 39 48 47 44 38 37 35 36 33 36 34 42 34 33 33 33 32 30 33 38 33 36 45 47 48 48 44 44 44 39 36 38 38 39 39 39 39 36 35
47 47 47 47 47 47 47 48 48 48 49 45 38 35 42 47 43 38 33 33 33 32 32 34 34 34 39 34 33 33 32 32 27 27 32 24 29 35 43 42 43 43 42 43 43 43 41 41 38 36 34 34 31 30
47 47 47 47 47 47 47 48 48 46 44 44 43 45 43 40 35 33 31 31 31 29 32 32 34 37 35 39 33 32 29 30 25 29 26 27 28 38 39 39 39 40 43 43 42 41 40 39 37 34 32 31 29 28
47 47 47 47 47 47 47 48 48 47 48 45 39 35 37 33 30 27 26 29 28 32 34 33 33 34 34 34 32 28 27 25 24 26 27 24 34 39 40 40 41 42 39 36 41 41 39 37 35 29 30 29 25 28
46 46 47 46 46 47 47 47 48 46 43 33 30 27 28 23 25 26 28 30 33 33 33 33 32 31 31 24 30 26 25 23 22 22 18 26 33 36 38 39 39 39 33 32 35 35 32 30 29 29 34 33 31 32
46 46 46 46 46 46 47 47 47 43 34 29 29 22 23 29 30 32 33 33 33 34 33 32 30 30 23 20 19 21 17 22 25 18 21 27 33 34 36 37 37 31 31 30 34 30 29 28 27 29 31 33 30 30
46 45 43 46 46 47 47 46 45 42 30 28 27 21 25 29 29 31 32 32 34 32 28 28 23 20 20 18 16 14 15 15 19 19 24 28 33 34 34 33 33 33 32 33 34 33 32 29 31 30 32 34 30 33
45 40 45 45 46 46 47 42 36 31 26 23 20 29 28 27 23 31 28 32 35 32 20 20 17 21 22 12 13 22 17 20 22 25 28 31 33 33 33 32 31 32 34 33 34 33 32 32 27 30 30 31 28 31
39 44 46 46 44 44 41 36 30 27 24 23 20 20 20 20 30 30 32 32 34 31 23 22 25 18 14 12 14 19 20 22 25 26 27 29 32 33 34 33 35 34 34 34 32 32 31 28 28 30 29 29 29 30
43 44 45 46 43 34 30 31 32 22 22 21 22 21 22 21 22 23 24 32 33 32 26 19 13 12 15 17 15 16 16 18 25 32 34 32 31 32 34 34 33 33 33 33 33 34 34 32 32 33 32 28 30 30
44 45 45 45 43 32 27 25 32 25 22 25 21 21 22 22 20 20 30 27 30 30 28 26 19 21 20 25 25 24 26 26 25 26 32 34 31 32 32 33 33 34 33 34 32 26 28 30 30 31 31 31 31 30
42 41 42 40 37 32 27 23 22 25 25 24 24 24 21 17 19 23 30 25 29 27 25 26 25 29 30 29 27 29 30 29 31 28 32 31 35 28 30 32 31 30 29 30 29 31 29 28 32 32 32 33 33 32
38 42 35 37 30 27 24 26 25 25 22 21 21 22 17 15 14 21 22 28 27 25 27 28 32 32 31 31 33 32 33 33 33 31 29 28 29 30 30 29 24 29 32 33 33 33 33 34 34 34 33 32 32 30
40 37 32 33 24 21 20 26 21 23 18 18 18 17 13 12 18 25 15 23 24 28 34 34 34 33 33 35 32 32 33 33 32 30 28 28 27 23 23 26 21 27 30 33 33 33 33 34 33 33 32 32 30 28
39 30 27 27 20 12 18 24 22 19 14 16 13 10 14 15 19 14 14 15 26 28 27 32 32 32 29 29 29 32 34 30 29 27 24 23 22 24 25 32 33 33 33 33 33 33 32 32 31 30 31 30 29 27
23 26 29 24 27 23 23 11 12 12 11 9 8 8 15 15 12 7 12 25 20 24 27 29 26 30 30 30 24 28 28 29 27 27 23 23 19 22 29 32 33 33 33 32 32 33 32 32 29 29 27 26 28 28
16 21 24 23 18 16 15 8 8 12 5 7 10 15 8 9 8 12 18 18 16 19 18 22 23 21 25 29 29 27 28 24 24 22 23 23 23 27 29 28 28 31 31 32 31 32 31 31 30 25 20 27 26 28
14 16 23 25 24 21 12 9 13 10 7 11 10 9 10 13 11 18 22 23 24 23 25 25 26 26 27 29 29 27 24 25 27 27 26 30 32 30 31 29 28 30 33 32 32 32 31 30 30 29 28 29 30 30
19 14 20 20 20 19 12 6 8 11 13 18 13 10 13 14 17 22 26 29 27 27 27 26 28 30 30 29 24 23 21 21 21 23 22 23 24 25 27 31 32 32 31 33 32 32 32 31 31 32 31 30 30 30
23 20 23 19 17 17 17 17 16 20 23 19 14 11 16 21 21 21 25 26 27 26 29 33 31 28 31 29 29 30 29 26 24 23 27 27 28 24 20 24 29 29 31 31 32 31 31 31 31 31 31 31 31 29
19 24 21 11 14 15 20 21 17 17 20 29 27 24 25 24 29 30 28 29 23 30 31 27 27 30 31 30 29 24 24 29 30 29 25 23 22 21 29 31 30 30 31 31 31 29 26 25 29 30 29 27 27 26
16 12 11 9 12 19 24 17 15 16 13 20 27 25 28 30 21 22 18 23 27 30 30 29 29 28 28 27 26 25 24 22 22 20 18 17 20 23 25 27 30 30 29 16 16 18 21 22 23 26 26 25 25 24
9 13 15 13 23 22 21 20 21 20 20 14 26 16 20 17 23 19 20 19 21 20 20 21 20 21 22 20 22 22 20 19 17 16 16 14 14 15 18 18 21 24 23 16 16 18 20 22 23 23 22 22 22 21
10 6 6 7 9 8 14 13 12 12 8 18 24 25 24 20 23 18 19 20 16 16 16 17 18 20 20 23 23 20 19 19 20 21 20 19 16 16 15 16 17 19 20 19 19 18 16 16 14 13 12 12 11 10

GFSWCAN_sfc_temp_009.txt.gz
Temp
51 50 51 51 51 51 51 51 51 51 51 51 52 52 52 52 52 53 51 53 50 41 46 51 53 48 46 42 36 43 41 37 36 33 27 28 21 30 29 34 31 31 28 24 27 26 23 45 45 37 42 42 44 44
51 50 50 50 50 50 50 51 50 50 50 50 51 51 51 52 53 54 50 54 53 48 49 52 54 54 55 53 46 42 43 41 38 34 33 26 29 31 32 32 38 33 36 31 33 33 42 45 46 46 46 43 42 41
50 50 50 49 50 50 50 50 50 50 50 50 50 51 51 51 52 53 50 51 49 40 45 47 49 53 57 56 55 42 36 46 41 43 35 34 34 34 32 34 35 40 44 34 36 43 45 47 50 52 49 44 46 46
49 49 49 49 49 49 49 49 49 49 49 49 49 50 50 50 51 52 50 50 48 41 34 41 51 51 56 56 54 53 51 49 46 40 34 34 34 41 34 39 36 42 41 37 39 45 45 47 48 47 48 45 43 43
48 48 48 49 49 49 49 49 49 49 49 50 50 50 50 51 51 51 51 53 53 48 37 39 46 52 54 53 52 51 50 46 39 37 34 35 35 37 35 35 35 43 41 37 37 47 45 48 46 44 43 42 43 42
48 48 48 48 48 48 48 48 48 48 48 49 49 50 50 50 51 51 46 51 52 53 40 35 45 44 48 49 49 48 48 48 43 40 35 38 44 40 33 34 45 48 50 50 45 50 48 46 44 45 43 43 45 44
48 48 47 47 47 48 48 48 48 48 48 49 49 49 49 49 51 48 45 47 50 52 37 36 36 39 42 43 43 43 44 43 44 40 37 39 41 42 33 36 46 48 47 49 50 48 43 42 40 45 45 45 45 45
48 47 47 47 47 47 48 48 48 48 48 48 49 49 49 49 49 46 47 49 50 46 39 35 35 36 43 36 34 39 36 37 39 40 36 35 36 36 34 43 45 45 45 46 44 44 43 43 43 43 45 44 42 40
47 47 47 47 47 47 48 48 48 48 48 48 48 48 47 46 42 44 48 48 46 45 36 33 33 33 42 37 35 34 36 33 36 33 35 37 34 34 39 41 41 42 41 41 42 43 44 40 42 42 42 39 37 36
47 47 46 46 47 47 47 47 48 48 48 48 47 43 36 39 47 47 44 39 38 36 36 33 36 34 41 34 33 34 33 32 31 33 38 33 33 41 41 41 41 40 41 41 36 37 38 37 36 36 36 36 34 32
47 47 46 46 47 47 47 48 48 48 48 44 37 35 42 47 43 37 33 34 34 33 33 34 34 34 39 34 33 33 32 32 27 25 31 28 28 34 37 37 38 39 40 40 40 40 39 39 37 35 33 33 31 30
47 47 47 46 47 47 48 48 48 46 44 44 42 45 42 40 35 34 32 32 32 31 33 32 34 36 34 39 33 32 29 29 24 29 28 23 29 36 39 39 40 41 43 43 42 41 42 40 38 35 32 32 29 28
46 47 47 46 46 47 48 48 48 48 47 44 39 35 37 33 30 30 27 29 28 31 33 33 32 33 34 35 31 28 25 23 26 24 22 25 34 38 38 38 39 41 37 34 38 39 39 37 36 30 30 31 31 31
46 46 46 46 46 47 47 48 48 46 41 30 29 29 30 27 29 28 28 28 32 33 33 33 32 31 31 25 28 26 23 23 24 21 18 24 32 35 37 37 36 36 32 31 34 33 31 30 30 29 25 30 30 30
46 46 46 46 46 47 47 48 47 42 34 29 26 21 25 27 31 32 33 33 33 34 33 32 31 30 26 21 26 23 20 20 25 18 20 26 33 34 34 34 34 30 29 30 33 31 30 29 28 29 30 27 29 33
46 46 44 46 46 47 47 46 42 38 29 27 25 19 29 31 29 31 32 32 34 33 32 31 19 16 17 17 15 19 15 14 18 17 23 28 33 33 33 32 32 32 31 32 32 32 32 28 28 31 29 27 29 31
45 40 45 46 46 46 46 41 36 31 24 21 18 30 19 26 20 32 29 32 34 32 27 21 17 19 20 11 13 21 16 19 19 23 25 30 32 32 32 31 29 30 32 32 32 32 32 31 28 24 26 31 28 27
38 44 45 46 45 43 41 35 28 25 23 21 20 18 28 19 31 31 27 24 33 31 26 22 23 14 10 10 12 18 19 21 24 24 26 29 31 31 32 31 34 33 32 32 29 30 30 27 28 30 30 31 27 25
43 44 45 45 43 36 30 31 32 23 21 19 20 19 19 19 21 21 19 24 32 32 30 26 11 12 15 17 14 13 12 16 24 29 28 31 31 31 32 33 32 32 31 31 31 32 32 31 31 31 31 31 30 31
44 44 44 44 43 30 27 24 30 25 21 24 20 20 21 21 19 21 29 25 29 29 28 26 20 19 19 23 24 23 25 25 24 25 30 31 30 31 32 32 32 32 30 30 28 23 30 32 31 31 32 32 31 32
42 41 42 39 34 30 26 22 22 24 24 23 23 23 19 19 23 21 21 31 27 28 26 25 21 26 29 30 27 28 29 28 28 26 29 30 32 28 29 30 29 27 25 25 27 29 31 33 34 34 33 33 33 33
39 41 35 36 29 24 25 25 24 23 21 19 19 19 12 11 16 24 20 28 25 26 27 26 32 32 31 30 32 31 32 32 31 30 28 28 27 28 25 24 21 21 29 31 31 31 32 34 34 34 33 33 33 30
40 37 32 32 22 18 19 24 18 21 15 15 16 15 11 10 17 23 18 25 23 28 32 31 32 33 33 34 31 32 32 32 31 30 29 28 28 25 21 22 18 21 27 30 32 32 32 33 33 32 32 32 30 27
38 28 23 22 16 12 15 28 19 17 12 15 11 9 12 12 15 12 13 14 25 25 26 31 30 29 27 28 28 31 33 29 29 27 25 22 23 25 23 24 23 25 29 32 32 32 33 33 32 28 28 28 27 28
22 24 19 23 27 23 21 14 11 15 14 7 7 7 13 12 11 5 11 18 16 19 26 25 23 27 25 24 23 27 27 28 27 25 27 22 18 17 21 23 24 27 26 29 29 31 32 33 32 31 28 23 25 24
12 18 24 24 23 13 12 10 16 12 3 4 7 11 4 5 7 11 17 18 15 17 17 17 17 19 23 27 25 25 28 26 24 22 24 24 23 21 23 28 29 25 23 28 31 30 31 30 31 30 30 28 24 27
11 18 24 23 22 19 11 6 10 7 4 9 8 6 7 7 7 16 20 21 23 23 24 26 28 27 27 29 28 28 28 23 28 27 24 25 27 28 29 29 26 24 28 32 30 29 29 30 30 31 30 30 29 30
18 16 19 18 15 14 9 3 6 9 12 16 10 9 12 12 16 21 25 25 24 25 27 27 26 29 29 28 24 22 25 24 18 21 22 24 25 23 18 28 29 27 27 28 30 30 30 30 30 30 30 31 31 31
23 20 16 10 12 14 16 16 14 18 21 18 13 9 14 20 19 20 25 24 23 23 21 26 25 18 22 31 31 30 30 28 26 20 16 17 24 25 23 24 29 30 31 30 31 31 31 30 28 28 29 30 31 32
18 22 22 19 19 19 20 20 15 15 17 23 23 23 24 20 20 19 19 20 20 17 19 24 28 29 30 31 28 27 27 26 27 27 23 17 17 17 21 27 28 30 30 29 28 24 20 17 19 22 25 26 27 26
13 10 9 5 9 14 18 12 6 8 9 16 19 23 27 23 15 13 16 15 21 23 22 21 24 22 22 22 20 19 19 18 18 19 16 14 13 14 18 20 20 22 27 22 24 16 11 12 14 16 18 20 21 23
15 12 12 9 13 17 8 12 11 12 18 7 24 10 9 12 13 10 15 15 15 15 15 16 16 18 20 21 19 18 20 19 19 19 18 17 15 15 15 16 16 18 18 20 20 18 17 15 13 12 15 17 14 13
3 -1 -3 1 6 7 8 9 7 7 3 11 22 18 12 16 14 13 15 16 15 15 15 16 17 18 19 20 19 18 20 20 20 21 19 17 15 13 10 9 9 10 12 13 13 13 10 7 6 6 7 8 7 6

GFSWCAN_sfc_temp_012.txt.gz
Temp
50 50 50 51 51 51 51 51 51 51 51 51 51 52 52 52 52 53 50 52 50 40 44 49 50 46 44 41 36 41 40 36 35 33 28 29 20 29 29 34 30 31 26 22 26 26 24 42 42 37 43 41 43 41
50 50 49 50 50 50 51 50 50 50 50 50 51 51 51 52 52 53 50 52 51 47 47 48 50 51 52 51 45 39 42 39 37 33 32 26 25 29 30 28 36 30 36 33 36 31 41 46 46 46 45 42 41 39
49 49 49 49 50 50 50 50 50 50 50 50 50 51 51 51 50 52 49 49 47 40 44 46 47 52 55 54 54 42 35 45 40 41 33 30 33 31 32 32 30 38 42 35 37 41 42 46 49 48 44 43 43 42
48 48 49 49 49 49 49 50 50 49 49 49 49 50 50 51 52 52 49 48 47 41 34 41 49 49 53 54 52 52 49 46 43 38 33 33 34 41 34 39 37 39 40 37 37 44 44 45 43 43 42 43 42 42
48 48 48 49 48 48 49 49 48 49 49 50 50 50 50 51 51 50 50 51 51 47 37 38 45 49 51 51 51 49 48 45 40 37 34 35 34 36 34 35 34 43 40 36 37 46 44 45 43 44 42 41 43 42
48 47 47 47 48 48 48 48 48 48 49 49 49 50 50 50 51 52 47 49 51 50 40 36 43 42 46 48 47 45 46 45 42 40 35 38 44 39 33 33 44 46 48 49 45 49 47 44 43 44 42 43 44 41
48 47 47 47 47 48 48 48 48 48 48 48 49 49 49 50 52 49 45 46 50 52 37 36 35 37 41 43 42 41 42 41 43 40 36 37 38 42 33 36 45 48 47 47 48 47 42 42 40 44 44 43 42 42
47 47 47 47 47 47 47 47 48 48 48 48 48 48 49 49 49 46 46 49 51 45 40 35 35 36 41 34 34 39 35 37 40 40 36 35 37 35 34 39 42 44 46 46 43 42 40 44 44 43 42 40 38 36
47 47 47 47 47 47 47 47 48 48 48 48 48 48 48 46 42 44 48 48 47 44 37 33 34 33 41 37 35 33 34 33 37 33 34 36 33 34 36 37 38 40 39 38 39 41 43 40 39 38 38 37 34 33
47 46 46 47 47 47 47 48 47 48 48 48 46 42 36 39 47 47 44 40 39 36 37 33 36 34 41 33 33 34 33 32 31 33 35 32 33 39 38 38 36 37 38 39 37 36 35 34 35 35 35 35 33 32
47 47 46 46 47 47 47 47 47 48 47 43 38 35 42 47 43 38 34 34 34 33 33 35 34 34 38 34 33 33 32 32 26 25 30 28 28 32 36 36 38 38 39 38 38 38 39 38 36 34 33 33 31 30
47 47 47 47 47 47 47 47 47 46 44 43 43 44 42 40 35 34 32 32 32 30 32 32 34 36 34 39 34 32 30 29 24 28 27 23 27 34 38 38 38 37 38 38 39 38 37 37 36 34 33 33 31 28
47 47 47 47 47 47 47 47 47 48 47 43 38 35 37 33 31 30 26 29 29 32 33 33 32 33 34 35 32 30 24 22 25 21 21 23 31 37 36 36 36 37 35 33 35 36 35 33 32 28 30 30 28 29
46 46 46 46 47 47 47 48 48 46 43 34 31 30 28 28 29 29 30 27 29 33 33 33 32 31 31 29 28 23 24 23 22 15 16 22 32 34 34 34 33 34 29 28 32 32 30 28 29 29 27 27 25 27
46 46 46 46 47 47 48 47 46 43 37 30 29 24 27 28 29 32 32 33 33 34 33 32 31 29 27 23 27 24 23 20 22 17 17 25 32 33 33 34 33 29 27 27 32 29 27 27 26 28 30 27 26 25
46 46 44 46 46 47 47 46 42 39 31 28 25 20 27 28 28 30 32 32 34 33 32 29 21 20 20 21 20 21 18 15 16 15 21 26 32 32 33 31 31 31 30 31 31 30 29 26 26 30 30 28 28 27
45 40 45 46 46 45 46 41 36 30 27 23 20 28 22 24 23 25 32 32 34 32 27 25 18 19 21 14 16 18 12 16 18 21 24 29 32 32 32 31 28 29 30 30 30 29 29 29 25 24 25 30 29 28
40 44 46 46 45 43 38 34 29 28 24 23 21 19 29 26 23 24 30 23 29 29 28 23 23 13 9 9 11 16 19 19 21 22 26 29 31 31 32 30 32 32 31 30 27 28 27 24 26 30 30 30 29 29
43 44 45 46 43 36 32 31 32 23 22 21 21 22 20 20 26 25 22 26 28 30 29 23 11 13 16 16 15 11 10 16 23 27 27 31 30 30 31 32 31 31 30 28 29 30 30 29 29 31 30 30 30 32
44 44 44 44 43 31 27 24 31 27 22 24 21 21 20 20 23 26 29 28 26 31 28 23 20 19 19 22 24 23 24 25 23 23 28 26 29 30 30 31 31 31 30 28 26 24 26 29 29 27 29 33 32 32
41 41 41 39 33 32 27 21 21 22 23 22 21 21 18 23 25 25 26 27 28 27 20 24 21 25 28 27 27 27 28 27 28 25 26 28 29 28 29 30 29 26 22 20 24 30 30 31 33 32 33 33 33 33
38 41 34 34 27 24 24 24 23 22 20 18 17 18 10 10 17 23 19 27 27 23 26 25 30 28 30 30 31 30 31 31 30 29 26 26 26 25 25 25 19 22 20 22 24 26 30 33 33 33 33 32 33 33
39 37 30 25 21 18 20 23 18 20 15 14 14 14 10 8 14 25 23 28 24 27 27 27 30 32 32 33 30 31 31 31 29 29 28 28 28 26 21 23 19 21 22 25 23 26 31 32 32 33 33 32 31 29
39 27 22 18 14 14 17 20 19 15 10 11 9 9 12 10 16 20 16 12 23 23 25 30 28 26 25 27 25 28 30 28 27 26 25 22 23 26 23 23 20 20 23 27 26 31 29 30 33 32 32 30 30 27
23 25 18 20 22 14 13 22 14 16 19 4 8 7 9 10 9 9 11 16 13 15 22 22 21 25 23 20 21 24 25 26 25 24 28 23 21 16 21 21 21 23 20 15 19 22 29 31 31 30 30 30 29 28
10 22 21 14 21 12 9 14 16 15 1 3 11 8 1 3 5 11 16 16 12 15 13 15 16 17 21 26 25 24 28 24 22 21 29 25 26 25 20 18 22 24 19 27 28 29 29 29 28 28 29 30 29 29
12 20 25 23 20 16 7 4 8 5 2 7 6 3 4 6 6 15 19 20 22 22 23 23 25 26 27 28 26 26 24 20 24 26 22 21 24 25 27 27 26 25 26 28 27 28 28 28 28 28 29 30 29 30
16 13 17 21 19 12 7 2 4 8 10 14 9 8 11 11 15 20 24 25 23 23 23 24 24 24 24 26 26 21 24 25 25 22 25 27 26 23 21 23 25 27 24 28 29 29 29 29 28 27 27 27 28 29
23 19 17 16 8 7 12 14 12 16 21 18 14 9 14 19 19 19 20 20 17 20 18 18 21 16 20 21 21 27 30 30 27 25 24 24 16 22 23 22 25 26 29 29 29 29 25 20 19 16 18 23 26 27
19 17 11 7 11 14 18 22 15 13 15 18 18 20 20 18 13 16 17 19 21 22 25 26 26 25 25 25 27 26 22 23 24 24 21 16 15 17 18 20 20 23 24 27 27 26 23 12 14 14 16 17 17 17
9 9 12 7 9 12 14 6 2 3 4 11 12 20 25 16 16 11 15 13 15 16 16 14 15 19 17 16 18 19 19 19 18 16 16 15 16 17 16 16 16 16 18 18 21 16 11 8 5 5 10 18 13 12
17 10 10 7 10 10 4 10 2 3 6 3 20 7 6 9 10 12 15 14 13 12 12 13 12 14 17 18 20 19 19 18 16 16 14 13 13 13 11 11 8 6 4 5 5 5 4 2 1 2 3 6 7 7
-2 -2 3 -1 5 6 2 6 3 3 -1 -4 -1 1 0 12 7 10 14 15 14 12 11 12 15 16 18 17 16 17 16 16 16 15 15 15 10 7 1 -1 -2 -2 -0 -0 -0 -2 -0 -2 -2 -2 0 1 1 1

GFSWCAN_sfc_temp_015.txt.gz
Temp
50 50 50 50 50 50 51 51 51 51 51 51 51 51 51 51 52 54 53 52 51 41 47 51 52 47 46 45 40 43 43 40 37 34 33 33 32 35 35 38 34 36 33 30 30 27 27 47 46 40 46 47 48 48
50 50 49 49 50 50 50 50 50 50 50 50 51 51 51 51 50 53 52 52 51 48 49 51 53 55 55 53 47 42 45 42 41 35 33 32 32 30 33 34 40 35 39 37 37 37 46 48 49 51 49 44 45 44
48 49 49 48 49 50 50 50 50 50 50 50 50 51 51 51 52 53 51 50 48 40 45 49 50 54 55 56 56 46 39 47 43 45 37 35 34 36 32 32 35 41 44 38 39 46 48 49 53 47 47 43 43 43
48 48 48 49 48 49 49 50 49 49 49 49 49 50 50 51 51 52 51 49 48 42 34 43 50 51 56 55 55 54 50 46 44 41 35 34 34 43 35 40 39 44 42 39 39 46 48 48 46 45 43 43 43 45
48 48 48 48 48 48 49 49 49 49 49 49 50 50 51 51 51 51 50 51 51 49 37 38 47 50 50 52 52 51 49 45 42 37 34 35 38 37 37 36 35 44 42 38 39 49 46 44 43 44 42 43 45 44
48 48 47 47 47 48 48 48 48 48 49 49 50 50 51 50 51 50 45 49 51 50 39 35 43 43 46 49 49 48 48 46 44 40 36 39 45 41 33 34 43 48 50 51 47 49 46 43 44 45 45 45 46 45
47 47 47 47 47 47 48 48 48 48 48 49 49 49 50 50 53 49 45 48 51 51 38 35 37 39 43 43 42 43 44 45 45 40 36 38 39 42 33 34 45 46 47 49 48 47 41 43 42 45 46 46 45 45
47 47 47 47 47 47 47 47 48 48 48 48 49 49 49 49 49 47 48 49 51 46 41 35 35 36 42 37 36 40 38 40 41 40 36 36 38 35 34 39 41 43 45 43 43 45 43 44 45 45 45 44 42 41
47 47 47 47 47 47 47 47 47 48 48 49 48 49 48 46 43 45 48 48 48 46 38 34 34 34 41 37 36 36 37 34 38 34 35 37 34 34 36 37 38 39 40 40 42 43 43 42 42 42 42 42 40 40
46 46 47 47 47 47 47 47 47 48 48 48 47 43 36 39 47 47 45 40 38 37 37 34 36 35 41 35 34 35 34 33 32 34 37 33 33 38 38 39 40 41 43 43 39 38 39 39 39 39 39 40 39 38
47 46 46 46 47 46 47 47 47 47 47 43 38 36 42 47 43 39 34 34 34 33 34 35 34 35 38 34 33 34 33 33 29 31 32 31 31 36 38 39 41 41 42 42 43 42 41 39 38 37 37 37 36 35
47 47 46 47 47 46 47 47 47 45 43 43 43 44 42 40 35 33 32 32 32 32 33 33 34 36 34 39 34 32 31 31 26 30 29 27 32 37 39 40 40 40 41 41 41 39 39 38 37 36 35 35 34 34
46 47 47 47 47 47 47 47 47 46 45 43 39 35 36 33 31 30 28 30 30 32 33 33 32 34 34 35 32 31 27 26 29 26 25 28 34 38 39 39 39 40 38 35 38 38 37 37 35 32 32 32 31 32
46 46 46 47 47 47 47 47 47 46 42 35 34 30 30 29 30 30 29 30 32 33 33 33 32 32 31 30 29 27 27 26 24 21 22 29 36 36 37 37 37 38 30 30 34 35 32 30 30 30 28 29 28 29
46 46 46 46 47 47 47 47 46 44 36 31 32 26 28 29 31 32 33 33 33 34 34 32 31 31 28 27 28 26 24 22 23 23 26 31 34 35 36 37 37 31 28 29 34 32 29 28 28 29 31 31 31 28
46 46 44 46 46 47 46 45 43 40 33 31 27 26 27 28 28 30 32 32 34 33 32 31 26 26 25 25 23 22 21 18 24 24 28 31 34 34 35 34 33 33 32 33 33 32 31 28 27 31 30 30 29 28
46 40 45 46 45 45 45 41 36 31 30 24 22 27 25 25 28 29 33 33 35 33 28 26 23 24 24 21 21 23 19 23 25 28 29 31 34 34 34 33 29 30 32 32 32 32 32 31 28 27 28 33 33 32
40 44 46 45 44 42 39 36 31 30 25 25 22 25 28 28 24 25 29 31 32 30 28 26 26 19 18 18 20 22 24 26 26 28 32 33 34 34 34 34 35 34 34 33 30 30 29 27 29 31 31 32 31 33
43 45 46 46 44 36 32 32 32 24 22 22 24 26 26 27 28 27 28 30 32 31 28 25 19 20 21 23 23 22 21 23 29 32 32 34 33 33 32 33 32 33 32 32 32 32 32 30 30 32 32 31 30 32
43 43 43 43 43 31 27 25 30 26 23 25 24 24 23 24 27 28 29 31 33 32 30 27 23 25 24 27 27 28 29 29 28 27 30 31 33 32 33 34 34 34 33 32 30 25 30 31 33 34 33 31 31 31
40 40 40 39 32 31 28 23 23 23 25 23 23 23 20 26 26 26 28 31 29 28 26 27 26 29 30 30 31 31 31 30 30 29 30 31 33 32 33 33 33 31 29 29 27 29 26 30 32 34 32 31 32 32
38 40 34 34 28 26 25 25 24 23 22 19 19 20 13 12 21 24 26 26 27 27 28 27 30 31 31 31 32 32 33 32 32 31 28 29 29 30 29 30 28 29 28 28 29 28 30 30 32 32 31 32 33 33
39 36 29 26 25 22 20 24 18 20 16 15 15 15 12 10 15 25 24 28 26 28 30 29 32 33 32 33 31 32 32 31 30 30 29 29 30 30 29 29 28 26 26 28 29 29 29 32 33 32 32 32 32 32
37 27 24 19 15 15 16 13 21 16 11 12 11 15 13 14 21 21 19 17 24 25 26 31 30 29 28 28 28 30 32 31 30 29 29 27 28 30 30 29 28 27 28 30 28 28 29 29 28 32 31 30 30 30
25 24 18 15 16 15 9 21 21 23 11 8 14 12 10 14 11 16 18 19 18 19 23 24 24 27 26 25 25 28 27 29 29 29 32 27 28 27 29 29 27 27 29 28 27 26 27 31 31 30 30 29 28 29
16 22 13 8 11 12 9 15 17 18 11 13 14 8 3 7 8 13 17 19 17 19 19 20 22 23 25 27 28 28 30 28 27 26 30 29 28 27 28 27 26 28 29 28 28 28 27 28 29 29 29 30 29 29
16 21 24 22 19 14 8 7 10 5 10 10 7 4 5 7 7 17 21 22 24 24 25 26 27 28 30 31 28 27 27 25 26 29 28 27 27 28 28 29 28 29 29 29 28 28 28 28 28 28 27 29 28 28
13 13 15 21 18 13 6 1 4 9 9 14 10 9 12 12 16 21 23 23 23 24 25 24 24 25 26 27 27 26 26 24 29 28 27 28 26 25 25 26 27 27 27 27 29 30 29 29 27 25 26 26 26 27
19 14 16 19 16 16 10 13 13 16 20 16 14 10 15 20 16 16 18 18 20 24 23 24 26 24 26 25 26 26 26 28 28 27 26 25 27 24 21 22 24 25 26 27 28 29 28 27 25 23 24 22 21 21
19 18 10 9 8 11 16 18 14 11 15 17 18 19 19 13 14 14 14 14 13 13 16 17 18 19 18 17 18 19 20 21 20 21 22 21 18 17 18 18 18 19 20 22 23 24 20 19 18 18 17 17 16 15
12 17 12 9 8 11 10 1 -0 2 3 9 4 16 16 11 12 12 12 12 12 12 12 10 12 14 14 14 15 16 19 19 19 18 18 17 16 15 14 14 13 12 13 15 19 16 15 12 10 10 11 10 8 9
18 14 7 12 10 6 3 10 4 4 -1 3 7 0 2 9 3 9 12 11 10 9 9 10 10 12 16 18 17 17 16 16 15 15 15 14 13 11 10 8 6 7 9 9 9 8 7 7 7 6 6 5 5 5
8 11 11 4 5 7 2 3 2 5 0 -1 -2 7 -2 1 -1 6 8 12 10 9 8 9 11 16 15 14 13 13 13 13 13 12 10 11 8 6 5 4 3 4 5 5 4 5 4 4 3 2 1 1 1 1

GFSWCAN_sfc_temp_018.txt.gz
Temp
50 50 50 50 50 50 50 51 51 51 52 52 52 51 51 51 51 64 60 60 64 54 58 59 60 58 58 61 53 54 53 50 46 38 37 39 36 44 43 48 43 43 36 33 34 30 30 56 54 42 50 54 53 51
49 49 50 49 49 50 50 50 50 50 51 51 51 52 51 50 52 57 64 61 60 61 58 59 60 63 63 66 62 55 56 55 55 46 40 39 34 35 39 39 51 41 48 46 45 45 57 59 56 59 58 53 48 44
48 49 49 49 49 49 50 50 50 50 50 50 51 51 52 52 52 57 63 60 61 51 57 60 59 61 64 65 67 57 54 59 56 57 49 41 35 46 34 40 41 53 54 46 45 53 56 57 59 57 53 44 44 48
48 48 48 49 48 49 49 49 49 49 49 50 49 50 51 52 52 56 61 59 58 50 37 53 58 58 62 63 64 64 60 56 56 55 40 36 38 53 42 49 48 53 53 49 48 52 54 56 51 49 45 45 48 51
48 48 48 48 48 48 49 49 49 49 48 49 50 50 51 52 52 59 61 60 60 59 43 48 55 56 59 60 61 62 60 56 49 43 38 40 47 42 40 39 40 54 51 45 42 52 47 44 47 45 44 49 50 50
48 48 48 48 48 48 48 48 48 49 48 49 50 50 51 51 52 61 57 60 61 62 47 41 54 52 56 58 58 57 59 54 51 47 41 46 51 46 34 37 50 55 57 54 46 51 50 45 45 49 49 50 51 52
47 47 48 48 48 48 48 48 48 48 48 49 49 49 50 50 59 56 54 55 54 61 44 41 44 49 50 53 51 54 52 52 52 46 41 44 46 45 34 36 48 50 51 50 51 52 45 44 45 50 51 52 52 53
47 47 47 47 47 48 48 47 47 48 49 49 49 49 49 49 50 52 55 51 55 53 47 38 39 42 49 42 40 46 44 43 42 43 38 40 41 38 35 44 46 47 46 46 48 51 49 50 51 51 53 52 50 50
47 47 47 47 47 47 48 48 47 48 49 49 48 49 50 48 45 47 48 51 55 54 43 36 36 35 47 41 41 41 43 37 41 36 36 39 37 36 42 42 44 44 45 45 48 50 50 48 48 49 49 49 46 46
47 47 47 47 47 47 47 47 47 48 48 48 48 44 36 41 48 48 48 43 41 38 39 35 42 39 48 38 38 39 38 37 35 37 45 34 35 39 43 46 46 46 48 48 44 43 45 44 45 45 46 46 45 45
47 47 47 47 47 47 47 47 47 48 48 44 39 36 44 47 45 40 35 36 36 33 35 35 36 36 42 38 36 37 34 36 32 36 35 35 36 41 45 45 48 47 48 48 48 48 48 47 45 44 43 43 41 40
47 47 47 47 47 47 47 47 47 46 44 44 43 45 43 40 35 34 33 33 33 34 34 34 35 37 35 40 34 33 34 34 30 40 32 32 42 45 46 44 45 48 48 48 48 47 47 45 45 43 41 41 39 37
46 47 47 47 47 47 47 47 47 45 46 44 39 33 34 33 32 32 30 32 33 36 37 34 33 35 36 38 34 35 32 32 38 29 32 40 43 45 46 47 46 47 45 42 46 47 46 44 42 38 36 36 34 36
46 46 47 47 47 47 47 47 45 45 44 35 33 31 32 30 33 36 37 36 36 37 36 36 34 36 34 33 34 31 32 34 28 27 30 39 43 45 46 46 45 44 37 38 41 42 38 35 35 34 33 33 32 33
45 46 47 46 47 46 46 45 45 46 41 34 35 30 31 32 34 34 35 36 36 37 37 35 34 38 32 30 33 30 27 27 31 32 38 42 43 44 42 42 44 40 35 36 41 38 34 34 34 34 36 36 35 33
46 45 45 46 47 46 45 45 44 42 38 36 33 30 32 32 32 32 34 33 36 34 35 37 32 31 30 31 28 28 28 28 33 37 40 43 40 40 41 41 41 41 38 39 40 39 37 34 33 36 35 34 33 32
45 42 46 46 45 44 45 42 44 35 33 33 30 32 32 33 34 34 36 35 36 34 32 34 29 29 30 29 27 31 29 34 37 39 41 41 41 41 42 40 36 36 38 39 39 39 38 36 34 33 33 38 36 35
42 44 46 46 47 44 41 41 38 37 30 31 31 31 32 32 33 33 34 36 35 35 36 33 34 29 28 27 30 35 36 38 39 40 42 42 42 42 42 41 41 41 40 39 36 37 36 33 35 40 39 39 36 36
44 45 46 45 45 39 34 34 37 32 30 32 30 31 32 32 31 32 33 34 38 39 36 34 30 30 31 34 34 35 35 37 40 42 42 42 41 39 39 40 39 39 39 39 39 40 41 39 38 39 39 39 35 36
45 45 44 44 44 39 33 33 38 35 32 32 33 32 31 30 31 32 33 35 37 36 32 31 32 35 36 39 39 40 41 42 40 37 38 41 41 40 39 40 41 42 41 41 40 35 38 39 42 41 39 37 33 33
40 39 40 42 39 39 36 34 33 34 33 33 32 34 29 31 30 30 31 34 32 33 33 37 36 39 39 40 41 41 39 40 39 38 37 38 42 41 40 41 41 40 38 38 36 38 34 36 39 38 34 32 33 33
38 40 34 36 34 33 33 33 34 33 34 31 32 33 30 29 28 28 32 30 30 35 38 38 40 40 39 38 40 40 41 40 40 39 35 37 37 39 39 40 39 36 37 36 37 35 36 38 37 35 33 33 34 33
38 36 32 31 30 31 27 34 30 30 29 28 30 29 29 29 28 29 27 32 34 39 40 40 40 40 40 41 39 40 40 38 39 40 39 39 40 39 38 39 38 34 34 37 39 37 35 35 34 33 33 32 32 32
38 30 28 27 29 25 28 27 30 28 29 28 27 24 25 28 27 25 24 29 35 37 36 38 39 39 40 36 38 41 41 41 41 41 40 38 38 39 41 39 38 37 37 38 36 35 34 32 32 33 32 32 32 31
31 26 29 23 27 24 24 26 24 27 23 21 21 23 24 24 24 22 24 32 34 34 37 38 37 38 38 39 40 41 38 40 39 38 41 40 37 36 37 40 39 38 36 32 32 32 32 32 32 31 32 31 31 31
22 25 25 23 23 25 23 21 22 22 23 20 22 23 23 25 23 25 30 33 33 34 34 34 35 38 39 40 39 40 41 40 38 36 38 39 36 32 31 31 32 34 35 33 31 31 31 31 31 30 30 31 30 29
21 23 28 29 28 24 21 21 23 23 19 19 25 21 23 21 23 30 34 30 32 30 32 33 32 33 33 34 36 37 37 37 34 36 38 34 33 33 31 30 30 32 33 32 31 30 30 30 30 30 30 31 30 29
26 27 22 24 24 26 22 22 22 21 26 27 26 21 23 25 28 28 26 25 26 29 30 31 31 29 29 30 30 30 31 32 32 33 32 32 33 31 29 30 30 28 30 31 31 31 31 30 29 29 29 29 29 29
26 27 27 21 22 22 24 26 27 30 32 29 27 28 28 27 20 20 22 22 25 24 22 21 23 24 26 27 28 28 26 25 23 24 26 28 30 25 25 26 27 28 28 28 29 28 28 27 27 27 27 27 26 26
25 28 24 21 20 22 29 30 30 29 31 32 32 31 26 19 18 21 20 20 18 17 18 18 18 19 18 18 20 23 24 23 21 19 19 19 19 21 21 21 22 23 23 25 26 28 27 26 25 25 23 21 21 20
25 26 24 24 24 29 27 22 23 23 26 28 26 29 27 17 17 18 16 17 17 17 16 15 16 19 18 17 17 17 17 19 17 17 17 19 19 18 18 17 18 19 21 22 22 22 21 22 21 19 17 15 14 14
24 24 23 21 25 24 23 23 23 24 25 25 25 21 18 18 12 14 14 16 15 13 12 13 13 14 18 18 18 18 15 16 15 14 13 14 14 14 14 15 15 17 18 19 19 18 17 16 15 15 14 12 10 10
18 20 19 19 22 24 21 20 22 21 22 21 19 17 14 14 8 12 17 16 14 12 11 12 14 15 17 17 15 16 15 16 14 14 12 11 10 9 10 12 12 14 14 15 15 14 13 12 11 10 8 7 6 5

GFSWCAN_sfc_temp_021.txt.gz
Temp
51 51 51 51 50 51 51 51 51 52 52 52 52 52 50 50 52 66 68 67 69 61 63 66 67 65 65 67 55 60 58 57 53 40 40 44 39 49 48 54 45 41 37 34 38 33 31 61 58 43 52 55 53 52
49 50 50 50 50 50 51 51 51 51 52 52 52 52 50 51 52 55 71 70 71 68 63 66 66 67 67 69 69 62 62 60 60 51 45 44 36 38 42 42 60 46 51 47 48 47 61 61 58 60 58 55 53 49
49 49 49 49 49 49 50 50 50 51 51 51 52 52 52 52 53 57 71 69 72 57 63 65 63 66 71 69 71 61 61 67 63 65 53 45 36 48 36 44 49 57 62 50 49 57 58 58 59 55 56 52 51 49
48 48 49 49 49 49 49 49 49 50 50 50 50 51 52 52 53 57 70 68 69 57 40 57 65 64 66 69 69 69 67 64 65 62 42 38 39 58 44 52 51 56 56 52 50 57 56 55 51 49 51 50 52 55
48 47 47 48 49 49 49 49 49 49 49 50 50 50 52 53 54 65 69 67 68 64 48 54 62 62 65 66 66 67 65 62 58 45 38 41 54 51 50 47 47 58 54 47 43 53 47 46 47 48 50 53 54 53
48 48 47 47 48 49 48 48 48 48 49 49 50 51 51 52 53 70 64 69 69 69 51 45 60 58 62 64 63 63 64 60 62 53 43 55 60 53 38 38 54 60 62 62 55 55 53 48 49 54 53 53 55 54
47 47 47 47 48 48 48 47 48 48 48 49 49 50 50 50 64 63 61 60 56 70 49 44 48 55 57 60 60 60 56 55 55 54 46 49 52 53 38 37 54 57 59 58 57 52 45 49 51 54 54 55 55 56
47 47 47 47 47 48 48 48 48 48 48 49 49 49 49 49 51 57 61 54 58 62 55 42 41 45 55 46 44 55 47 49 50 49 42 44 48 44 38 49 54 56 54 52 51 52 53 54 54 55 56 55 53 52
47 47 47 47 47 47 48 48 48 48 48 49 49 49 52 51 50 56 49 54 63 59 47 38 37 36 53 44 44 45 49 39 45 37 38 42 38 36 46 50 51 51 51 51 54 54 54 51 51 53 53 52 50 49
47 47 47 47 47 47 47 47 48 48 48 48 49 46 38 43 48 49 51 48 49 50 48 38 50 39 51 40 39 40 40 40 36 39 42 34 35 43 50 52 53 53 51 51 48 47 48 47 49 50 49 50 49 47
47 47 47 47 47 47 47 47 47 48 48 45 39 36 44 47 46 42 36 38 37 35 37 40 41 40 48 40 37 40 35 36 34 37 37 36 38 46 50 49 51 52 53 53 53 52 52 51 49 48 47 46 44 44
48 47 47 47 47 48 47 47 48 47 45 44 44 45 44 40 36 36 34 34 34 35 35 34 36 41 38 44 36 34 34 36 32 44 33 32 45 50 49 50 51 52 53 51 52 50 51 50 50 46 44 44 43 40
47 47 47 47 47 47 47 46 46 46 47 44 38 34 35 33 31 32 31 33 34 34 35 34 33 35 35 38 33 34 33 34 42 32 34 44 48 50 51 51 50 53 49 46 49 51 50 48 46 41 39 40 36 39
47 47 47 47 47 47 46 46 46 48 45 36 33 31 32 31 33 35 36 37 36 36 36 35 33 35 35 33 35 33 34 37 30 29 32 46 48 50 51 51 50 48 38 42 44 45 43 39 39 37 34 34 33 35
47 47 47 47 47 46 46 45 45 53 46 36 35 31 32 34 34 34 35 36 36 39 39 38 38 39 35 32 35 32 29 29 33 35 41 47 48 49 47 46 47 44 36 38 45 42 35 35 36 37 38 38 38 35
47 47 50 46 46 45 45 46 45 44 45 40 35 32 34 34 33 33 33 34 38 37 38 39 34 33 32 33 30 30 30 31 36 40 45 46 44 44 44 45 45 45 43 44 44 43 41 36 34 39 39 36 34 33
45 46 46 45 45 45 45 42 44 40 38 34 33 36 35 35 34 35 36 36 39 36 33 35 31 30 32 31 29 37 33 37 41 43 46 45 43 44 45 45 38 41 42 43 43 43 42 41 37 36 34 41 42 39
47 51 46 46 47 43 41 40 40 40 33 38 36 34 35 35 35 35 36 38 36 35 36 33 37 30 30 29 33 38 41 43 45 44 45 45 45 45 46 44 45 44 44 43 41 41 40 36 37 40 44 44 42 41
50 49 45 46 48 40 35 36 42 36 35 37 35 36 36 34 35 36 35 36 39 40 38 36 32 32 34 38 38 38 40 42 43 44 46 46 45 43 42 44 42 42 42 42 42 43 44 44 43 44 44 43 41 40
44 44 44 44 45 38 34 37 44 40 37 38 39 38 37 35 33 33 34 36 39 38 34 33 35 39 40 43 44 44 45 45 44 41 42 45 47 45 43 43 43 44 43 44 44 39 43 43 44 45 44 42 36 35
41 40 40 42 38 42 40 37 36 38 37 39 39 41 33 34 32 32 33 38 35 36 36 40 40 42 45 45 45 45 44 44 43 42 41 41 45 44 44 44 44 44 43 42 39 40 38 40 42 43 36 35 35 35
38 40 35 39 36 36 36 39 40 40 38 36 36 40 32 30 30 31 34 32 33 39 44 43 45 45 44 42 44 44 44 44 44 43 38 39 40 42 43 44 43 40 41 39 41 37 38 41 41 39 35 33 34 35
38 36 33 35 32 33 29 40 33 35 31 31 34 31 31 31 32 35 30 36 39 45 46 45 45 44 43 45 44 44 45 43 43 44 44 43 44 44 42 43 42 38 37 40 42 41 39 37 36 34 34 34 34 33
37 32 30 30 33 27 31 30 36 33 33 32 31 28 30 32 31 29 29 35 41 45 42 42 43 43 44 41 43 45 46 47 45 44 45 43 41 42 44 43 42 41 40 39 38 36 35 33 33 33 33 32 32 32
30 27 29 25 30 29 28 28 28 31 27 28 27 27 28 31 28 27 28 37 38 36 37 41 42 43 42 42 44 44 46 45 42 41 44 44 41 40 40 42 42 41 39 34 32 32 33 33 32 32 32 32 31 31
26 27 27 28 27 28 29 26 27 27 28 26 27 29 29 29 26 27 35 34 33 33 31 32 33 36 39 41 38 38 39 40 39 36 40 42 38 35 33 32 33 36 39 35 33 31 32 31 31 31 31 31 31 30
25 26 30 34 33 31 28 28 31 29 26 26 28 26 27 24 26 33 34 29 31 30 32 33 31 32 31 33 33 32 33 33 31 30 32 33 34 35 32 31 30 32 33 33 32 31 31 31 31 31 31 31 31 31
30 31 25 28 29 33 27 28 27 27 29 35 32 26 26 28 29 27 27 28 29 31 32 32 32 30 30 29 29 29 29 29 30 32 35 37 34 27 27 29 30 29 30 31 30 30 31 30 29 30 29 29 30 29
29 31 30 24 26 28 29 29 31 35 38 34 30 30 31 26 24 25 25 26 28 27 26 24 25 27 28 29 29 28 26 24 21 19 20 22 23 24 24 25 25 26 26 26 28 29 28 27 27 27 27 27 27 27
26 31 28 26 24 27 31 34 32 31 37 36 36 33 28 22 21 24 24 24 22 21 22 23 23 23 21 21 22 23 24 23 20 18 16 17 18 22 22 21 21 22 22 24 25 26 27 27 28 28 26 24 23 23
30 30 28 29 28 31 29 29 29 30 30 32 31 30 24 20 20 21 21 22 22 21 20 19 20 21 20 19 18 18 18 22 20 19 18 18 19 19 19 18 19 20 20 21 22 23 22 23 24 22 21 18 17 17
28 27 27 25 28 29 29 28 29 29 30 29 29 27 23 23 18 18 19 20 20 17 16 17 16 16 18 20 20 20 18 18 19 17 17 15 16 16 16 16 17 17 17 18 20 20 19 19 19 18 18 15 13 13
25 26 25 25 26 26 27 26 28 27 27 26 24 23 21 21 15 17 21 20 17 16 15 16 17 18 18 18 19 19 18 19 18 17 16 15 13 13 13 13 12 11 14 16 17 17 16 15 15 14 12 10 9 8

GFSWCAN_sfc_temp_024.txt.gz
Temp
51 51 51 51 51 51 51 52 52 52 53 53 52 51 50 52 53 63 67 69 68 61 65 69 70 67 67 66 53 60 57 57 52 38 40 44 38 46 48 54 42 38 36 33 38 34 32 61 58 42 50 54 53 51
50 50 50 50 50 51 51 51 51 52 52 53 53 52 52 52 53 55 69 71 72 67 63 69 67 68 68 68 67 62 62 59 58 49 46 45 36 37 40 42 61 45 48 45 45 43 56 58 55 55 54 51 49 49
49 49 49 50 50 50 50 50 51 51 52 53 54 52 52 53 54 56 70 68 71 60 62 63 62 67 70 69 71 60 60 67 63 64 50 42 34 45 35 43 48 57 62 48 49 56 59 56 55 54 53 50 51 52
48 48 49 49 49 49 50 50 50 50 51 50 50 51 51 52 53 55 69 69 68 56 38 57 68 65 68 70 70 69 66 65 64 58 41 38 36 57 44 50 49 55 58 53 51 57 56 52 52 51 52 52 52 56
47 47 48 48 49 49 49 49 49 49 49 49 50 51 52 53 53 65 69 69 69 63 45 54 64 65 67 68 67 68 65 62 56 44 37 39 51 51 47 46 45 56 52 46 44 53 53 50 51 52 51 52 54 53
47 47 47 47 48 49 49 48 48 48 49 49 50 51 51 51 51 67 62 68 68 69 50 42 61 60 64 65 65 64 64 62 60 52 43 52 62 52 37 39 53 60 61 61 54 55 53 52 51 54 54 54 55 54
47 47 47 47 47 48 49 48 48 47 48 49 50 50 50 51 62 59 57 57 53 65 48 41 47 56 59 63 61 59 59 55 56 53 45 47 51 53 38 38 54 58 61 60 58 53 47 51 50 55 55 55 55 55
47 47 47 47 47 48 48 48 48 48 48 49 49 49 49 49 51 58 58 55 56 61 54 42 42 46 56 47 45 55 47 48 49 48 43 44 49 42 38 49 55 58 59 55 54 55 52 52 55 55 56 54 52 51
47 47 47 47 47 47 47 48 48 48 48 49 49 49 54 55 54 57 50 51 64 58 47 37 37 36 54 44 43 45 48 38 45 38 39 43 38 36 45 50 54 56 53 52 54 55 54 53 52 52 52 51 49 48
47 47 47 47 47 47 47 47 48 48 48 49 50 46 38 43 49 49 56 51 51 51 48 39 49 40 50 41 38 39 40 38 35 38 42 34 35 46 52 55 56 54 54 53 48 47 49 47 49 49 49 50 47 45
47 47 47 47 48 47 47 47 47 48 49 45 40 36 44 47 48 44 40 40 40 37 39 42 45 41 49 39 37 41 36 37 34 37 37 35 36 45 51 51 54 53 52 53 54 53 53 51 48 47 46 44 41 41
48 47 47 47 48 47 47 47 48 47 45 44 43 45 43 40 36 38 34 34 34 36 36 35 36 43 40 48 40 36 34 35 32 42 34 33 43 51 50 50 51 52 53 52 52 51 51 50 49 44 42 40 40 37
47 47 47 47 47 47 47 47 46 46 47 43 38 35 36 33 32 32 31 32 33 33 34 34 33 35 36 38 33 33 32 32 38 32 31 40 47 50 51 51 51 51 45 44 49 50 49 47 44 39 37 38 34 37
47 47 47 47 47 47 47 47 47 49 45 36 33 32 32 32 33 33 33 34 35 36 34 34 33 34 33 33 33 32 33 35 31 29 32 43 47 50 51 51 50 45 36 40 41 42 40 37 36 35 33 33 31 33
47 47 48 47 46 46 46 46 47 56 47 37 35 31 32 33 34 34 34 35 34 36 35 34 34 35 33 32 33 32 30 29 31 32 35 42 44 45 43 46 45 41 34 36 42 39 33 34 34 36 36 36 37 33
47 46 48 46 46 46 46 47 47 49 45 40 35 33 34 34 33 33 33 33 36 36 37 37 33 33 32 33 31 30 30 29 33 37 42 42 41 40 41 41 41 42 40 40 40 40 38 35 33 37 38 35 33 33
45 47 46 46 45 45 46 44 42 40 39 33 33 37 35 34 34 34 36 36 39 35 33 34 31 29 33 31 30 34 32 34 39 41 40 40 40 41 42 41 37 39 40 40 40 40 39 38 35 35 34 38 38 36
49 49 45 46 48 45 43 42 39 39 34 39 35 34 35 36 34 34 37 38 37 37 38 33 37 31 31 30 33 37 40 40 40 41 42 43 43 42 44 41 43 41 40 40 37 38 38 35 36 37 38 40 39 38
44 48 45 46 46 40 35 36 42 36 36 38 35 38 36 34 36 36 36 37 39 38 37 35 31 32 34 37 37 37 38 39 40 41 42 42 41 41 40 40 39 40 39 39 39 40 41 40 40 41 41 41 39 39
44 44 43 43 45 38 34 37 44 40 37 39 39 37 35 33 34 33 34 36 38 36 34 33 34 38 39 41 41 41 41 42 41 39 40 42 43 42 41 40 41 41 41 40 41 37 40 41 43 42 42 40 37 35
42 41 41 41 37 38 38 39 38 40 40 38 38 39 32 34 33 33 33 37 34 36 36 41 40 43 44 43 43 43 42 42 40 40 39 39 42 41 41 42 42 42 41 40 38 39 37 38 40 40 35 34 33 33
38 41 35 35 34 34 36 41 39 41 38 36 37 39 31 31 30 32 35 33 36 39 42 43 44 45 43 42 43 43 43 42 42 42 37 39 40 40 41 42 41 39 39 38 39 37 37 39 38 37 35 33 34 33
39 36 33 33 32 32 30 39 33 37 31 31 36 31 31 31 33 35 31 36 39 45 45 46 45 44 43 44 43 43 43 42 42 42 41 42 43 42 41 41 41 37 37 39 40 38 37 35 35 33 33 33 33 32
36 33 31 31 32 28 33 31 37 35 35 33 32 29 31 32 33 31 30 36 41 43 42 42 43 42 43 42 42 43 42 43 42 42 42 41 39 40 41 41 40 40 40 39 38 35 34 33 33 33 32 32 32 32
31 28 30 27 31 30 29 29 30 32 28 31 29 29 29 32 29 29 29 35 32 32 33 36 40 42 40 40 40 39 38 36 34 33 37 38 36 35 35 37 37 38 38 35 34 33 33 33 32 32 32 31 30 31
26 28 28 29 29 30 31 27 28 29 30 28 29 31 31 30 27 27 33 30 28 28 29 29 31 34 36 35 33 32 31 33 31 29 32 32 31 29 29 29 30 32 29 30 30 31 31 32 32 31 30 31 31 30
25 27 31 35 35 33 29 30 30 29 27 27 29 27 28 24 26 29 30 28 28 28 31 31 31 30 29 31 30 30 30 29 27 27 30 32 29 27 25 24 23 25 28 28 28 28 28 29 30 30 30 30 30 30
31 31 26 29 31 33 28 29 28 28 30 35 32 26 26 28 26 26 26 28 29 30 32 31 30 29 29 27 28 28 27 27 27 29 30 30 31 28 25 25 25 25 25 25 25 26 27 28 27 27 27 27 27 27
29 32 31 25 29 30 31 31 31 36 38 36 31 31 28 25 24 25 25 26 28 28 26 25 24 27 26 28 28 26 25 22 18 15 15 17 18 20 22 22 22 22 22 22 23 25 25 26 26 26 25 26 25 26
27 31 30 28 26 29 30 33 31 32 37 34 36 31 27 22 22 26 25 24 23 21 22 23 23 22 21 20 20 22 24 21 19 16 13 12 14 18 19 18 17 18 20 20 20 21 24 24 24 26 23 22 20 20
31 31 29 30 29 30 30 30 31 31 31 33 31 29 22 19 20 22 22 23 23 22 20 19 20 21 18 18 18 16 16 20 19 19 17 17 16 16 15 15 16 16 16 16 17 18 20 20 21 21 19 17 16 15
30 28 29 27 28 29 31 30 30 30 31 29 29 26 24 22 19 18 20 21 20 18 16 17 16 16 18 20 19 20 18 18 18 18 17 16 15 15 14 14 14 15 12 11 13 17 17 16 17 15 14 12 11 10
28 28 27 28 28 28 29 29 30 28 29 28 26 25 21 20 16 17 21 21 18 17 16 16 17 18 19 17 16 18 18 17 16 18 17 16 13 13 12 13 13 12 9 9 10 15 13 12 11 10 9 8 6 4

GFSWCAN_sfc_temp_027.txt.gz
Temp
51 51 51 50 50 50 49 51 52 52 53 52 52 51 52 52 53 58 57 60 57 48 53 58 58 55 56 51 42 50 45 44 37 36 33 32 30 34 36 42 36 31 28 27 32 30 23 53 51 39 42 45 45 44
51 50 50 50 50 50 51 51 51 52 52 53 52 52 52 52 53 53 56 61 61 54 52 59 59 61 59 57 54 52 49 49 46 38 34 35 33 35 33 30 47 35 38 33 36 34 46 50 48 48 48 45 44 44
50 50 50 50 50 50 50 50 51 51 52 54 51 50 50 52 53 54 57 58 57 48 51 53 52 59 63 61 61 49 47 56 52 50 40 40 33 36 29 32 37 46 51 37 40 48 48 47 48 48 48 47 48 47
50 49 49 49 50 50 50 50 50 50 50 50 50 50 50 52 52 56 56 57 54 48 37 47 62 56 63 62 63 60 57 56 52 46 38 37 33 45 34 39 36 44 48 45 40 47 47 49 48 47 47 49 49 50
48 48 48 48 49 50 49 49 49 48 48 49 50 50 51 50 52 57 58 58 58 53 39 40 56 59 62 61 60 60 56 52 45 38 35 35 35 38 33 35 34 48 45 37 33 47 46 43 45 48 47 48 49 48
47 47 47 48 49 49 48 48 47 47 48 50 50 51 51 50 52 57 51 56 55 56 44 36 51 53 57 58 57 57 54 52 48 41 36 41 51 41 35 34 46 52 55 53 45 48 47 46 48 52 51 49 50 49
47 47 47 47 48 49 49 48 46 47 48 49 50 51 50 50 54 51 49 51 49 54 40 36 40 48 52 54 49 52 50 47 47 42 37 36 38 43 34 34 46 51 54 50 51 48 43 47 45 51 51 51 50 49
47 47 47 47 47 48 48 49 48 47 48 49 49 50 50 48 50 51 51 51 50 50 44 36 37 37 50 38 39 45 39 44 45 41 39 37 39 36 35 42 48 52 52 50 50 52 48 49 51 50 50 48 45 43
47 47 47 47 47 47 47 48 48 48 48 49 49 51 53 50 46 49 49 49 55 50 38 34 32 31 45 39 38 39 43 35 41 35 36 39 34 35 41 44 47 49 48 47 50 52 50 49 48 47 46 44 41 40
47 46 47 47 47 47 47 48 48 48 48 49 50 47 38 42 48 50 51 42 42 43 42 34 38 36 43 36 35 35 34 34 33 35 39 33 34 41 45 47 48 50 51 50 45 43 44 44 43 43 43 41 40 38
47 47 47 47 47 47 47 47 48 48 49 45 39 36 43 48 46 41 36 38 38 36 37 38 37 38 41 34 34 36 33 34 32 31 34 33 32 39 45 46 47 49 50 49 49 48 48 45 42 41 39 36 36 34
47 47 47 47 47 47 48 48 48 45 44 44 43 44 43 40 36 36 34 34 35 34 34 34 35 39 36 42 35 34 34 33 31 37 32 30 34 43 45 46 47 48 48 49 49 47 45 43 41 37 36 35 35 33
47 47 47 47 47 47 47 47 46 46 46 43 39 35 37 32 32 32 31 31 32 32 34 33 33 34 35 37 33 33 32 31 34 31 28 29 43 45 46 44 43 44 40 40 43 43 42 41 39 35 32 34 28 32
47 47 47 47 46 46 47 47 47 47 43 35 33 30 32 30 31 31 32 32 33 33 33 33 32 33 32 33 32 31 31 32 29 24 23 34 41 45 45 43 41 38 35 36 37 37 36 33 32 30 29 28 25 29
47 47 47 46 46 47 47 47 47 47 41 34 34 30 30 32 32 32 33 34 33 34 34 33 33 33 32 31 31 30 28 27 28 29 31 34 37 39 38 39 38 35 30 33 36 34 29 29 30 32 32 32 32 29
47 47 45 46 46 46 47 47 44 42 34 35 34 31 32 32 32 32 32 32 35 34 34 34 32 31 30 30 28 29 28 26 29 32 34 35 36 36 36 37 36 37 36 36 35 35 34 29 27 33 33 30 29 29
47 43 45 46 46 47 46 41 39 36 31 34 32 34 33 33 33 33 34 34 36 34 32 32 29 27 30 28 27 30 29 30 32 32 33 36 36 36 36 37 34 36 36 35 35 35 34 34 29 29 30 34 33 32
44 45 46 46 47 45 40 40 33 32 30 32 32 32 33 33 32 32 33 34 34 32 32 30 31 27 26 25 27 31 31 32 32 33 34 37 37 37 39 36 38 35 35 35 32 34 34 29 32 32 33 34 32 31
43 45 45 45 44 38 34 34 37 30 31 30 32 32 32 32 33 33 33 34 34 33 31 29 27 25 27 29 30 31 31 31 31 34 35 37 37 37 37 37 36 35 35 34 34 32 32 34 33 33 33 31 31 31
43 43 43 43 44 35 33 31 37 31 31 31 33 32 31 30 31 32 33 33 33 32 26 24 25 27 29 30 31 31 32 32 31 30 30 34 34 36 35 33 31 34 33 34 33 30 30 31 31 31 31 27 24 27
42 41 42 40 35 37 34 33 33 32 30 31 32 31 29 31 31 31 32 33 32 26 27 29 28 31 34 32 32 32 33 35 32 29 29 29 31 31 31 33 33 31 29 29 27 30 27 29 32 31 25 30 34 33
38 41 34 36 33 32 30 33 32 30 32 29 32 32 29 27 28 30 31 30 27 28 31 29 32 31 32 34 34 35 36 36 35 31 30 28 28 28 28 29 28 27 28 29 30 32 33 32 32 27 32 33 33 32
39 37 33 32 30 30 27 32 28 32 24 29 30 25 28 28 29 29 29 29 28 33 33 34 36 36 35 36 36 35 35 35 29 30 31 30 29 29 30 31 29 28 30 31 30 32 32 31 28 24 25 32 32 29
38 32 28 30 31 27 31 29 30 29 29 29 27 22 27 28 25 22 20 23 27 29 31 31 32 30 30 33 29 28 29 30 29 29 30 29 27 29 29 29 29 29 29 29 30 30 31 32 33 28 32 31 25 25
29 28 29 26 29 26 25 26 27 23 20 25 22 18 20 23 17 16 18 27 27 27 28 29 29 30 28 25 27 27 29 27 25 23 25 25 23 24 25 26 26 26 25 25 25 25 25 28 30 30 28 26 25 26
25 27 26 25 23 25 26 23 23 20 20 20 23 24 22 18 15 14 24 24 25 25 25 26 25 25 26 26 24 23 24 25 24 20 22 24 23 20 19 18 17 18 21 22 21 21 21 23 24 25 27 27 27 27
24 25 28 30 29 28 25 25 27 25 23 20 20 21 19 11 10 21 25 25 25 26 28 28 27 24 23 23 24 25 23 21 18 21 23 25 23 21 18 16 15 18 20 20 19 18 19 20 21 21 23 25 27 26
27 26 20 26 27 28 25 24 24 23 24 27 25 19 15 15 19 22 23 25 25 27 27 26 23 23 22 23 24 17 14 14 15 16 18 23 19 14 16 15 16 18 15 17 17 18 18 19 19 21 21 23 24 23
27 29 27 22 23 25 24 23 23 27 29 27 22 19 21 21 20 22 22 23 24 23 18 19 15 16 16 16 16 18 10 7 8 3 -0 1 7 9 13 14 13 12 13 14 16 17 18 18 20 20 20 21 20 16
25 29 23 20 18 21 26 28 29 29 26 26 25 22 20 18 18 19 20 18 16 14 18 16 16 11 6 5 5 7 14 10 4 3 1 -1 8 11 10 10 10 10 11 11 10 9 14 16 19 20 19 15 16 12
27 28 28 27 26 27 27 28 29 29 30 29 28 23 17 14 14 15 14 17 17 8 9 7 7 5 3 4 6 3 3 3 5 10 8 4 5 3 2 7 8 9 10 7 5 6 7 12 15 14 12 10 10 8
28 25 26 23 24 27 29 27 28 27 25 27 22 20 14 11 6 9 7 12 12 6 5 4 2 4 3 7 4 2 12 5 2 2 6 7 5 3 5 4 6 7 8 -3 4 6 7 10 10 9 8 6 5 4
25 25 22 16 17 17 21 16 16 15 15 14 16 16 11 8 4 7 11 9 6 2 2 2 2 2 9 5 0 3 2 -0 3 12 11 11 8 4 1 4 8 8 2 -0 3 7 6 6 3 3 2 1 -0 -1

GFSWCAN_sfc_temp_033.txt.gz
Temp
51 51 50 49 49 49 50 50 51 51 51 49 48 49 50 51 54 57 53 54 54 45 49 52 53 50 48 46 41 46 44 41 34 31 28 28 23 32 32 37 33 31 27 26 23 19 26 45 45 39 42 41 44 42
50 50 49 48 48 49 50 50 50 50 47 49 49 49 50 51 53 55 53 55 55 51 50 53 54 54 53 54 48 45 47 44 42 33 30 32 26 33 29 28 40 32 36 32 35 34 43 45 44 45 45 43 42 42
50 49 48 48 48 49 50 50 50 48 48 48 49 49 50 52 54 56 53 51 51 45 48 50 50 56 59 55 56 46 42 49 45 43 38 32 28 31 29 30 32 41 44 33 37 43 43 45 44 44 45 43 44 46
50 49 49 49 49 49 50 49 48 48 48 49 49 49 50 53 53 55 52 51 48 42 36 45 55 53 58 57 57 55 51 47 44 40 33 32 28 38 30 35 33 40 42 39 35 42 42 44 44 44 44 45 47 47
49 49 49 49 49 49 48 48 49 49 49 50 49 49 51 53 54 55 52 50 51 50 38 37 50 54 55 55 54 53 51 47 41 36 33 34 31 34 34 33 33 43 41 35 35 44 43 43 44 44 43 45 46 46
49 49 49 49 49 48 47 47 48 49 49 50 48 48 50 52 53 53 48 51 51 49 41 35 45 47 50 52 51 50 49 46 42 38 35 38 42 37 33 34 41 46 47 47 44 46 45 43 43 46 46 47 48 45
48 48 48 48 48 47 47 47 48 48 49 50 48 49 51 51 51 49 46 48 49 48 39 36 34 43 46 46 44 45 45 44 44 39 35 36 34 39 33 31 44 47 48 48 47 45 40 42 42 47 48 46 46 44
47 48 48 48 47 47 47 47 48 49 49 50 49 48 50 50 50 48 48 48 48 44 39 33 31 35 44 36 37 42 37 39 40 39 38 34 37 35 34 39 43 45 45 44 44 45 45 46 46 45 46 45 41 40
46 46 46 47 47 46 46 47 48 49 50 50 50 50 50 47 43 46 48 47 48 46 34 32 32 32 40 38 37 37 39 34 39 34 35 36 33 34 38 40 42 43 42 44 44 45 46 44 43 43 41 39 38 38
46 46 46 46 47 47 47 47 48 50 49 49 49 44 39 43 48 48 46 40 38 37 37 33 36 34 40 34 34 32 34 33 29 33 39 33 34 37 39 41 42 43 44 44 40 38 40 39 39 39 38 41 39 38
46 46 46 47 47 47 47 47 48 49 49 44 40 37 44 48 44 39 35 33 37 36 36 36 35 36 39 34 32 33 32 32 31 29 33 30 32 34 38 39 41 42 43 43 43 41 40 37 35 37 37 36 36 35
47 47 47 47 47 47 47 47 48 46 43 44 42 44 41 38 35 35 34 34 34 33 34 34 35 37 36 37 34 34 33 32 29 35 32 29 33 39 40 38 39 41 40 40 40 39 39 39 40 37 36 35 35 33
46 46 46 46 47 47 46 46 46 46 46 44 40 36 38 34 33 34 32 32 32 33 34 33 33 33 35 36 33 33 32 31 33 32 30 31 36 37 38 38 38 40 38 37 40 41 40 39 37 35 33 35 28 31
46 46 46 46 46 47 47 47 47 46 43 36 34 32 32 30 30 31 32 32 32 33 33 33 32 33 32 33 32 31 32 32 29 24 20 32 35 37 37 37 37 34 30 34 35 35 34 32 31 28 26 26 24 28
46 46 46 46 46 46 47 46 47 46 39 33 33 29 29 31 32 32 33 33 33 34 33 33 33 33 32 31 31 29 26 23 25 23 30 32 33 35 34 35 36 34 30 32 34 33 28 27 28 30 30 30 30 25
46 46 44 45 46 46 46 44 41 40 32 34 33 30 31 31 31 32 32 32 34 33 33 33 31 30 28 30 27 26 25 20 21 30 32 33 33 34 35 35 35 35 34 33 33 34 33 28 26 32 31 29 25 24
45 41 45 45 45 45 44 39 35 33 30 34 31 33 32 31 32 32 33 33 35 33 31 31 21 24 29 25 25 29 25 28 31 33 34 34 34 35 34 35 33 34 35 34 34 34 34 32 26 26 28 34 32 31
41 41 45 45 43 41 37 35 31 30 30 31 30 31 32 32 32 32 33 33 32 32 32 27 29 21 19 21 23 28 30 30 30 31 33 35 35 35 35 35 36 35 34 34 30 33 32 26 30 30 32 32 30 29
42 40 43 44 42 33 30 32 33 27 30 31 31 31 31 31 32 32 32 32 27 27 27 23 20 19 21 26 25 31 29 27 29 31 32 33 34 34 34 34 34 33 32 32 32 30 29 31 30 30 30 30 29 29
43 42 42 43 42 31 30 28 32 29 29 31 31 30 30 30 31 32 32 32 30 27 23 21 22 24 25 27 28 27 27 28 28 26 27 30 30 31 30 29 28 29 29 29 28 25 28 29 31 30 29 28 28 29
39 38 40 37 35 35 29 30 30 31 32 30 31 30 28 30 30 30 30 31 23 22 24 26 23 26 30 29 28 28 30 31 28 26 25 25 26 28 27 27 27 26 24 23 25 27 28 27 28 26 26 26 28 29
37 40 35 36 32 32 28 31 31 31 31 30 30 30 27 26 27 29 30 28 25 24 27 25 28 28 30 28 27 28 29 30 29 27 26 25 24 23 24 24 23 22 24 23 24 23 21 23 22 20 22 23 25 26
37 34 34 33 22 26 21 33 28 30 27 28 29 25 26 26 28 30 26 30 28 28 28 28 29 30 29 28 28 27 28 27 24 24 24 24 24 21 23 23 19 14 14 18 20 18 16 15 16 16 18 19 21 20
36 27 30 30 28 20 25 21 27 26 24 22 26 23 24 25 26 25 24 25 28 29 27 27 28 27 27 27 24 23 24 25 24 22 22 21 21 20 20 20 17 15 15 15 14 12 12 11 11 13 14 13 14 15
26 23 22 21 23 18 13 10 16 19 16 15 17 17 20 20 18 19 15 23 25 25 25 25 26 28 25 22 23 23 23 23 21 20 20 19 13 13 15 16 15 14 12 8 6 7 8 8 9 9 10 10 10 12
21 18 17 17 17 19 14 10 14 15 17 21 20 21 20 19 19 12 22 23 23 24 23 23 23 22 23 24 22 19 18 19 19 17 17 16 13 6 2 3 5 6 11 1 4 4 5 6 5 4 5 8 9 10
13 12 20 28 26 27 24 20 23 23 21 20 16 19 21 17 16 18 23 23 24 23 24 24 24 23 22 19 18 16 14 13 12 16 16 15 14 13 4 -2 -0 6 10 5 -0 1 3 3 2 3 3 6 8 11
23 20 17 20 25 27 23 23 23 22 24 26 25 21 20 16 15 19 21 23 22 23 21 20 19 19 17 15 13 10 12 9 14 13 13 9 6 1 1 -1 0 8 1 -3 -4 1 -0 3 3 4 5 6 8 9
24 27 26 23 23 24 24 24 24 26 28 27 22 19 16 17 15 17 18 19 20 18 14 13 12 11 11 11 8 6 0 -1 -0 -5 -9 -11 -10 -2 1 -6 -8 -6 -6 -6 1 7 7 7 7 7 8 10 8 4
23 26 21 19 20 19 23 23 24 26 25 22 21 19 16 13 14 16 14 14 12 9 6 6 3 4 -4 -5 -6 -2 -2 -7 -6 -5 -9 -9 -3 1 -11 -9 -6 -7 -8 -9 -6 -2 -0 -5 -3 -5 -3 -4 -3 -2
22 23 23 22 21 22 24 26 27 27 27 22 19 13 10 9 10 11 11 8 8 6 3 -3 -3 -11 -7 -8 -10 -10 -6 -8 -10 -6 -5 -6 -7 -10 -11 -8 -10 -12 -11 -9 -11 -13 -13 -12 -13 -14 -12 -10 -10 -9
24 22 21 19 19 23 17 23 23 24 23 22 14 6 2 0 -4 3 6 1 -0 -4 -8 -13 -9 -5 -6 -5 -8 -10 -4 -9 -10 -10 -9 -7 -7 -10 -12 -11 -15 -16 -17 -17 -17 -16 -16 -18 -18 -17 -18 -16 -14 -12
14 7 13 6 10 12 12 4 3 8 14 15 7 3 -1 1 -1 4 5 -2 -2 -5 -7 -9 -11 -12 -9 -8 -8 -10 -8 -11 -12 -3 -2 -1 -5 -6 -12 -16 -18 -19 -18 -20 -20 -20 -17 -17 -19 -19 -19 -19 -18 -16

GFSWCAN_sfc_temp_036.txt.gz
Temp
51 50 49 49 49 50 50 51 51 49 48 49 49 50 51 52 54 57 54 53 52 44 47 50 51 48 47 45 40 45 43 41 34 32 28 27 24 31 32 36 33 31 29 28 23 16 25 44 44 38 42 39 42 41
49 48 48 48 49 49 50 50 49 48 48 49 49 49 51 53 53 57 54 54 53 49 48 52 53 53 51 52 46 43 46 43 41 33 27 28 26 32 29 28 37 32 35 30 33 33 42 44 43 44 44 43 41 42
48 48 48 48 49 49 49 48 48 48 48 48 49 50 50 52 54 56 53 49 50 44 47 48 48 54 56 53 54 46 41 47 43 41 34 30 28 30 27 29 31 38 41 32 36 42 41 44 45 45 44 44 43 43
48 48 48 49 49 48 48 47 48 49 49 48 49 51 51 52 53 54 50 49 48 43 36 44 53 51 55 54 54 53 48 45 42 39 32 31 29 36 29 33 31 39 40 37 35 41 41 45 44 45 44 44 45 45
48 48 49 49 48 47 48 48 48 49 48 48 49 52 52 53 54 54 50 50 48 49 38 37 48 51 53 53 52 52 50 46 41 36 34 33 30 33 34 33 33 40 39 34 34 44 43 44 45 43 43 43 44 43
48 48 49 48 47 47 47 47 48 49 48 47 48 50 51 52 52 52 48 50 50 47 42 36 43 45 48 50 49 47 47 44 41 38 34 36 41 36 33 34 41 45 45 45 43 43 44 43 43 43 44 44 44 44
48 48 48 47 47 47 47 47 48 48 48 48 50 51 52 53 52 47 45 48 48 47 39 36 34 42 44 45 42 43 43 42 42 39 35 36 35 38 33 32 42 44 45 45 45 42 40 40 41 45 44 43 44 43
48 48 47 47 47 47 47 47 48 49 49 48 49 50 49 49 49 48 47 47 47 43 39 33 32 35 42 37 37 42 37 39 40 39 37 34 37 35 33 38 41 43 44 44 43 43 42 43 43 42 44 43 39 37
47 47 46 46 46 47 47 48 48 49 49 49 49 50 50 46 44 45 48 47 46 45 34 28 32 31 40 37 36 37 39 35 38 34 36 36 33 33 35 35 38 40 40 41 42 42 42 39 39 39 39 37 35 35
46 46 46 46 46 46 47 48 49 49 49 49 49 45 37 43 48 48 45 40 38 36 39 32 36 34 40 34 34 33 34 32 27 31 39 33 33 36 35 36 37 38 40 42 37 35 37 36 36 36 36 36 36 36
46 46 46 46 46 46 47 48 48 49 50 45 40 37 44 47 44 37 33 33 36 31 36 35 35 35 38 34 32 32 31 33 31 28 34 31 31 34 35 36 37 38 39 38 39 38 38 36 35 34 33 35 35 35
46 46 46 46 46 47 47 47 48 45 42 44 43 43 41 39 35 35 33 33 32 29 34 34 35 37 35 36 35 34 32 32 28 34 32 29 31 36 37 37 38 39 39 39 39 38 38 38 38 36 35 35 34 32
46 46 46 46 46 47 47 47 47 47 46 43 38 35 36 32 33 32 31 32 32 33 34 33 33 33 35 35 33 34 32 30 33 31 29 31 34 37 37 37 37 37 36 37 39 39 38 37 36 35 32 34 29 32
46 46 46 46 46 46 46 47 47 47 43 36 34 34 32 32 31 31 32 32 32 33 33 33 32 33 32 33 32 32 31 32 29 26 22 32 35 34 35 36 36 33 28 33 34 35 34 31 31 29 27 26 25 29
46 46 46 45 46 46 46 46 46 45 39 33 34 28 29 31 31 32 32 33 33 34 33 33 33 34 32 31 31 29 24 20 22 21 29 31 32 33 34 35 34 32 27 30 33 31 27 26 27 29 29 28 29 23
45 45 43 45 46 45 46 45 42 41 35 34 31 30 31 32 31 32 32 32 34 33 33 33 31 29 28 27 23 22 22 16 21 30 29 32 32 34 34 35 34 34 34 34 34 34 32 26 25 31 29 27 22 21
45 40 44 45 45 45 44 39 37 33 31 33 31 33 32 32 32 32 33 33 35 33 31 30 23 23 28 22 22 26 21 27 31 33 33 34 34 34 35 34 32 34 34 34 33 33 32 31 25 27 28 31 30 30
39 39 44 45 42 40 36 34 31 31 30 31 30 30 32 32 32 32 32 33 33 33 31 27 29 21 18 19 19 25 27 28 29 30 31 34 35 34 34 34 34 33 32 31 29 30 29 27 28 28 29 29 28 28
40 40 43 43 41 33 31 31 32 29 30 31 30 30 31 31 31 32 32 32 29 27 27 23 19 19 20 23 21 28 30 25 27 29 30 31 32 32 31 31 31 30 29 28 28 27 27 28 29 28 26 27 25 27
42 42 42 42 41 31 29 27 31 29 29 31 31 30 30 29 30 32 32 32 30 26 22 20 21 23 23 25 26 27 27 27 27 25 25 27 28 28 28 27 26 27 26 26 25 22 25 25 25 24 22 23 23 23
38 38 40 36 33 32 30 27 30 31 31 30 30 30 28 30 30 30 30 30 25 20 23 24 20 25 28 27 27 27 29 30 27 25 24 26 25 26 25 25 25 24 21 20 19 18 17 18 19 19 16 18 18 20
35 40 29 33 29 25 31 32 31 31 30 29 29 30 27 26 27 28 29 26 26 24 26 25 28 27 28 27 28 27 28 28 28 26 25 23 21 22 22 20 18 15 16 15 16 13 13 16 15 14 12 12 14 15
37 34 31 27 23 22 25 32 27 30 27 27 28 25 25 26 27 30 26 29 29 28 28 29 29 30 28 28 28 27 27 26 23 23 22 22 23 23 21 17 14 10 10 13 14 14 11 8 10 8 9 10 10 10
35 31 30 29 26 23 26 18 25 22 21 23 25 23 23 25 26 24 23 25 28 29 28 29 28 27 27 25 22 22 24 24 22 20 20 19 18 18 18 16 13 11 11 11 9 4 5 1 2 5 5 4 5 6
20 21 19 11 23 12 18 12 18 23 12 12 17 16 21 18 17 19 18 23 24 24 24 27 27 26 24 22 21 21 21 22 20 17 17 16 12 12 13 14 12 11 10 -0 1 -1 -1 -1 -0 0 1 0 2 4
14 17 16 8 10 13 10 9 8 12 14 16 18 20 16 15 15 15 21 21 22 22 21 22 22 21 20 22 19 18 17 18 19 15 14 14 11 5 1 -1 -0 2 6 -4 -7 -7 -2 -1 -0 -2 -1 0 2 3
12 11 19 26 23 21 17 15 18 18 18 21 20 19 21 18 15 17 21 21 21 21 22 22 23 22 18 17 16 15 13 13 14 14 15 14 12 10 0 -5 -4 3 6 0 -8 -12 -8 -4 -2 -1 -0 1 1 3
17 16 13 15 18 22 19 17 17 19 18 26 24 20 19 16 14 18 20 21 20 20 18 18 17 16 14 12 10 8 9 12 11 10 9 7 5 0 -2 -3 -2 5 -4 -10 -12 -9 -9 -4 -0 1 1 2 -1 -4
18 21 21 16 17 22 21 21 23 25 26 26 22 18 14 15 14 15 18 19 18 17 14 12 10 10 10 9 6 5 2 -2 -2 -6 -9 -11 -11 -4 -3 -10 -11 -11 -13 -12 -5 2 2 -1 -1 -5 -10 -11 -8 -10
18 22 18 14 17 19 20 23 20 23 23 21 20 18 15 12 13 15 15 13 11 7 3 3 3 3 -5 -6 -8 -4 -8 -13 -9 -7 -11 -13 -7 -3 -12 -15 -14 -12 -16 -19 -16 -13 -6 -13 -11 -15 -14 -14 -15 -18
19 18 15 15 14 17 19 23 23 24 22 17 14 10 9 8 10 11 9 6 6 3 -2 -7 -8 -15 -10 -11 -13 -12 -8 -10 -13 -9 -9 -11 -10 -13 -13 -14 -17 -20 -22 -21 -23 -22 -22 -21 -23 -23 -21 -18 -17 -18
22 19 14 14 17 16 13 16 14 20 19 18 9 2 1 0 -5 3 3 -0 -4 -6 -10 -16 -11 -7 -10 -11 -14 -14 -8 -11 -11 -12 -12 -10 -10 -10 -14 -15 -21 -22 -21 -21 -22 -23 -22 -23 -23 -23 -24 -22 -22 -20
12 7 9 6 10 12 9 1 1 5 8 9 1 2 -3 0 -3 2 3 -4 -4 -7 -9 -11 -12 -14 -12 -11 -11 -13 -12 -14 -14 -5 -3 -2 -7 -8 -15 -19 -22 -22 -20 -21 -23 -25 -22 -21 -22 -23 -23 -24 -23 -24

GFSWCAN_sfc_temp_039.txt.gz
Temp
50 49 49 49 49 49 50 50 49 48 49 49 49 49 51 53 52 56 53 54 54 46 49 52 53 49 48 48 44 47 47 45 39 37 37 35 35 38 39 41 36 37 33 31 27 29 32 48 50 44 50 49 49 47
48 48 48 49 49 49 50 48 48 49 49 49 50 50 52 53 54 55 52 54 54 51 50 53 54 54 53 55 49 46 50 46 46 39 35 33 33 33 34 37 41 38 41 38 39 40 48 49 49 51 50 49 49 48
48 48 48 49 49 48 48 48 48 48 48 49 49 51 52 54 54 55 54 52 52 46 49 51 50 55 56 53 55 48 44 50 46 45 38 35 35 36 33 35 39 42 44 40 41 48 46 48 51 50 51 49 51 50
48 48 48 48 47 47 48 48 48 48 49 49 50 51 52 53 53 54 53 50 50 45 37 46 53 51 55 55 56 54 49 46 44 43 36 34 35 39 35 40 39 44 44 42 41 45 46 49 48 50 50 49 50 48
48 48 48 47 47 47 48 48 48 49 51 50 51 51 51 52 54 54 51 50 50 51 39 41 50 51 52 53 52 52 51 48 44 39 35 37 36 37 36 36 36 44 43 39 39 47 48 48 49 49 48 48 48 46
48 47 47 47 47 47 48 48 47 48 48 50 52 53 52 52 53 53 51 50 49 48 44 37 45 45 48 50 49 48 48 46 44 41 36 39 42 39 34 35 43 46 47 47 47 49 49 49 48 49 47 46 46 44
48 47 47 47 47 47 48 49 48 48 50 51 51 51 51 51 51 49 47 49 48 48 41 37 37 43 44 46 44 44 44 43 44 41 36 38 39 41 34 36 40 44 46 46 48 48 46 44 42 45 44 43 42 41
47 47 47 47 47 47 48 48 48 49 49 49 50 50 50 50 49 49 47 48 47 45 41 35 34 37 43 39 38 43 39 41 41 40 38 36 38 36 35 38 40 42 43 44 44 44 43 43 43 42 42 40 36 34
46 46 46 46 47 47 48 48 48 49 49 49 49 49 50 47 45 47 48 48 47 47 36 32 34 34 43 37 37 39 40 35 39 35 37 39 34 33 33 35 36 37 37 40 41 41 41 38 37 37 37 36 33 33
46 46 46 46 46 47 48 48 48 49 49 49 49 45 39 43 48 48 45 42 40 37 38 32 37 34 41 36 34 36 35 34 33 35 39 34 33 35 36 36 37 37 40 42 37 34 35 35 35 35 35 37 37 37
46 46 46 46 47 47 47 47 48 50 50 45 41 39 44 47 45 38 34 35 35 33 36 36 37 36 39 36 34 34 33 34 31 34 35 33 32 33 37 37 39 40 41 40 40 39 37 37 36 35 35 36 37 37
47 47 46 46 46 46 47 47 48 46 43 45 44 44 42 40 36 35 33 34 33 32 34 35 35 38 36 38 35 35 32 33 30 36 33 30 31 36 37 37 38 40 40 40 41 40 40 39 40 38 37 37 36 35
45 46 46 46 46 47 47 47 47 47 46 45 41 37 39 34 33 29 30 32 32 33 34 34 33 34 36 37 34 35 33 31 35 32 31 31 34 36 37 38 38 39 38 38 40 40 39 38 37 36 34 35 32 34
45 45 45 45 46 46 47 47 47 46 43 35 34 33 30 32 32 32 33 33 32 33 33 34 33 34 33 34 33 33 32 33 30 28 26 32 34 34 37 38 38 35 31 35 36 36 34 33 33 30 27 26 25 32
45 45 45 44 45 46 46 46 46 44 38 34 35 28 29 31 32 32 32 33 33 34 34 33 33 35 32 32 32 31 28 25 26 26 30 32 31 35 35 35 36 35 29 33 36 33 28 28 30 31 32 32 31 28
46 45 42 44 45 45 46 45 43 41 35 34 32 30 32 32 32 32 32 32 34 33 33 34 32 31 29 29 28 26 26 23 27 31 31 33 33 34 36 36 35 36 35 35 35 34 32 29 28 31 30 30 27 28
44 38 42 44 44 44 44 41 37 35 33 32 31 33 32 32 32 32 33 33 35 34 31 31 26 26 30 25 24 29 26 28 32 32 33 33 33 34 35 34 33 34 34 33 33 32 31 30 29 29 27 29 28 29
37 39 43 44 43 41 36 34 33 32 30 31 30 30 32 32 32 32 32 33 33 33 32 30 32 26 24 22 24 28 29 31 33 33 35 35 35 35 35 34 33 33 31 30 29 30 29 28 28 27 27 26 27 27
40 40 42 43 41 34 33 32 33 29 30 31 31 31 31 31 32 32 32 32 30 31 30 26 23 24 25 27 27 27 31 31 32 32 32 32 33 32 32 31 31 30 29 28 28 27 28 27 25 25 23 23 22 24
42 42 42 42 41 32 30 28 32 32 29 30 31 30 30 30 31 32 32 32 31 28 26 24 25 27 28 29 30 31 31 32 32 29 28 28 29 29 28 28 27 27 26 26 23 22 23 23 23 21 20 18 17 17
37 37 39 36 32 33 31 29 31 31 31 30 30 30 28 30 30 30 30 31 27 24 26 26 25 28 29 29 30 31 31 33 30 30 28 25 26 26 25 25 24 23 20 19 18 17 17 17 18 17 14 13 14 15
35 39 29 31 26 28 32 32 31 31 30 29 29 30 28 27 27 28 30 30 28 26 28 28 29 30 28 27 27 28 29 29 29 27 26 25 24 22 20 20 19 17 16 15 16 14 14 15 14 12 11 11 12 12
35 32 26 25 22 22 26 32 28 30 28 27 29 26 26 26 28 30 27 29 28 30 30 30 29 30 28 28 28 27 28 27 24 23 23 23 23 20 18 16 15 13 12 13 14 12 10 6 9 7 8 8 8 8
34 25 20 16 20 23 23 18 28 23 22 26 25 20 22 26 26 24 24 26 27 29 29 28 28 25 25 24 23 23 25 25 22 20 21 20 18 17 18 15 13 12 12 11 9 6 6 5 2 5 4 4 4 5
22 22 20 15 14 15 19 19 17 16 12 14 17 17 23 21 18 20 21 22 23 23 24 27 28 26 22 20 21 20 21 23 20 17 17 17 15 15 14 14 12 11 11 7 5 3 3 3 3 3 3 2 3 4
16 21 15 18 11 12 15 9 10 11 10 11 15 19 18 17 12 15 19 19 21 21 21 23 22 20 19 21 19 18 17 19 19 15 14 15 13 10 8 6 6 8 9 4 2 1 1 1 1 1 1 3 2 3
15 16 23 28 26 24 16 15 18 18 14 15 18 18 21 19 13 17 21 21 21 20 20 20 22 20 17 16 16 15 16 16 16 15 15 14 12 11 7 5 3 7 8 5 1 -1 -2 -2 -1 0 1 3 4 3
23 21 14 14 14 22 14 14 16 21 22 25 23 17 17 15 14 17 19 20 19 19 17 16 15 15 13 12 12 13 12 12 11 10 10 9 8 6 5 5 4 4 -0 -2 -2 -2 -1 -1 -0 2 1 0 -1 1
21 20 19 10 11 16 16 16 16 21 24 25 21 16 13 14 14 14 17 18 18 17 14 12 11 11 10 9 6 4 4 7 7 1 -1 1 1 5 5 2 0 -1 -2 -3 -2 2 4 6 3 0 -3 -3 -4 -4
16 17 13 9 12 14 15 20 19 19 21 20 19 16 14 12 12 14 14 13 11 8 6 6 5 6 2 2 1 3 0 -2 1 2 1 0 1 3 0 -1 -1 -1 -5 -5 -5 -4 -3 -4 -3 -5 -6 -6 -6 -6
17 16 14 13 12 14 14 21 23 22 17 15 12 10 9 10 11 10 8 6 6 4 4 0 -1 -6 -1 -2 -1 -2 -0 0 -6 -3 -2 -3 -3 -2 -1 -1 -3 -6 -7 -7 -8 -8 -8 -7 -8 -9 -8 -9 -10 -10
20 18 12 13 16 11 9 5 7 19 18 14 4 2 3 3 -3 6 5 1 0 1 -7 -10 -5 -0 -4 -4 -8 -6 -7 -3 -2 -4 -5 -3 -1 -0 0 -2 -7 -9 -7 -7 -8 -9 -10 -9 -9 -10 -10 -10 -11 -12
10 6 11 13 10 10 7 1 -1 6 8 4 1 -1 -1 2 0 4 4 -1 0 -2 -4 -4 -4 -6 -7 -7 -4 -3 -8 -4 -8 -4 -2 -3 -5 -2 -2 -4 -8 -8 -8 -7 -8 -10 -9 -10 -8 -10 -11 -13 -13 -13

GFSWCAN_sfc_temp_042.txt.gz
Temp
49 49 49 49 49 49 50 50 50 50 50 50 50 50 50 50 53 55 58 62 67 56 58 60 61 60 60 63 56 56 57 55 53 47 46 48 44 49 50 52 47 46 42 38 38 35 36 58 56 50 57 61 60 60
49 49 49 49 48 49 49 49 49 49 49 49 50 50 50 51 53 53 58 61 67 62 57 61 60 62 62 65 63 60 61 59 61 53 48 45 39 38 47 46 52 46 53 50 51 52 57 60 61 61 60 59 61 59
48 48 48 49 48 49 49 49 48 49 49 49 49 49 50 52 53 56 61 60 64 57 58 61 58 62 65 62 64 60 57 61 59 59 54 49 38 50 38 47 49 54 54 50 49 58 58 59 62 63 63 60 61 60
48 48 48 48 48 48 48 48 48 48 49 49 49 49 51 53 53 57 63 59 61 55 42 53 62 58 62 64 64 63 61 58 58 61 49 42 42 51 47 51 51 55 53 52 51 58 60 59 58 57 58 59 58 58
47 47 47 47 48 48 47 48 48 48 48 49 50 51 53 54 53 57 57 56 57 59 45 51 58 59 61 63 62 62 61 61 58 51 42 46 49 47 45 47 48 55 52 49 49 53 53 55 57 55 55 55 55 53
47 47 47 48 47 47 48 48 49 49 49 50 51 52 53 53 55 66 57 54 56 62 55 43 55 54 58 60 58 56 58 58 58 51 41 50 49 51 39 46 48 51 53 53 52 56 55 54 53 55 52 53 53 51
47 47 48 48 48 48 48 48 50 49 50 51 51 51 51 51 60 63 60 55 52 58 51 42 46 52 53 56 53 55 55 53 56 46 41 44 45 52 39 45 45 49 51 52 54 53 51 49 47 50 49 48 45 43
47 47 47 48 48 48 48 49 49 50 50 51 51 51 51 51 52 56 56 50 52 58 56 42 42 48 51 44 44 50 46 52 46 43 43 41 43 44 40 41 44 48 49 49 49 51 49 49 45 42 43 42 38 36
47 47 47 47 47 48 48 48 49 49 49 50 49 50 59 54 55 56 47 49 57 58 47 37 41 38 48 42 43 47 47 39 44 41 40 46 38 37 36 38 40 40 41 43 46 45 42 40 40 39 39 38 36 36
46 46 47 46 47 47 47 48 49 49 49 49 56 56 49 51 48 52 57 54 51 48 46 36 43 37 47 42 38 41 40 39 37 40 43 37 33 37 38 38 39 43 47 45 37 36 36 35 36 38 40 43 45 45
47 47 47 47 47 47 47 47 48 50 52 55 51 45 53 49 56 50 43 43 45 38 41 40 43 40 44 40 36 40 36 39 35 39 39 36 33 35 38 39 42 45 46 45 43 40 40 41 41 42 42 41 41 41
47 46 46 46 47 47 48 47 49 52 51 51 52 52 53 50 47 38 35 38 38 35 37 38 39 43 39 46 40 40 35 38 33 43 36 33 34 37 38 38 41 45 46 46 46 45 45 44 44 43 42 41 40 39
45 46 46 46 46 47 47 47 47 47 49 54 51 41 48 39 36 36 32 35 34 36 36 36 35 39 40 44 37 38 34 33 42 34 34 34 35 37 38 41 42 44 43 44 44 45 44 42 41 40 38 39 36 39
45 45 45 45 45 46 46 46 47 49 53 44 38 34 35 35 34 35 36 35 34 35 36 38 36 37 37 37 35 34 33 35 32 30 31 33 34 36 42 44 43 40 35 41 41 41 38 38 37 34 32 33 33 34
44 44 45 44 45 46 46 46 47 52 45 38 39 31 31 32 33 33 34 35 35 36 38 38 38 39 34 33 34 34 31 30 33 33 33 34 35 38 40 41 41 38 34 39 41 37 33 33 35 36 35 35 33 31
45 45 41 44 45 45 46 48 49 47 40 37 35 32 33 33 32 33 33 33 36 35 37 38 34 34 32 35 32 32 32 31 33 37 35 34 36 38 40 40 40 41 41 40 39 38 35 32 32 34 34 32 30 30
45 41 42 44 45 45 45 47 44 37 36 34 32 34 34 33 32 33 34 33 35 34 33 36 32 30 35 32 30 35 32 35 35 33 36 39 38 36 39 39 35 38 39 38 37 36 35 34 33 32 31 32 32 32
40 43 43 44 46 46 43 43 40 37 31 33 33 32 33 33 33 33 33 34 37 36 36 33 38 31 31 30 33 36 35 36 38 36 37 38 37 35 35 37 39 38 36 35 34 34 33 31 32 32 31 30 31 31
42 42 43 43 46 44 39 38 41 32 32 34 33 34 33 33 34 35 34 34 37 40 37 37 33 34 34 38 36 33 35 38 35 34 32 33 35 35 37 37 36 35 34 33 33 33 32 30 29 29 28 27 26 27
42 42 42 42 46 42 35 35 43 36 32 33 34 32 33 33 34 33 34 35 37 38 35 33 34 34 36 36 37 39 41 42 39 33 31 33 36 36 36 35 34 33 32 31 28 27 29 29 28 26 24 23 22 21
43 42 41 44 41 39 35 35 35 35 35 32 33 33 32 33 33 33 33 36 35 31 32 31 30 31 33 35 38 40 40 42 40 37 34 30 33 34 32 31 31 30 29 27 26 25 23 23 23 22 20 20 19 20
40 41 40 39 35 35 36 36 35 36 35 33 33 34 31 30 31 31 34 34 31 30 31 31 33 35 34 32 34 36 36 35 34 32 31 31 29 29 28 29 28 25 24 23 23 21 21 21 19 18 18 17 18 19
40 40 36 34 31 31 29 38 33 33 30 31 34 31 31 31 32 36 31 33 31 32 33 32 30 31 30 31 31 32 34 33 31 30 29 28 27 26 25 24 23 22 21 20 21 20 18 13 16 14 16 16 17 17
39 31 27 27 29 25 29 27 33 31 32 30 30 27 27 30 32 32 28 28 29 31 31 30 30 28 28 27 26 26 27 29 27 27 28 27 24 23 23 21 19 18 18 18 18 16 16 14 12 15 13 13 14 13
29 25 28 24 28 26 23 23 27 28 25 25 26 25 26 30 26 26 24 25 26 26 27 29 29 28 25 23 24 23 25 26 24 20 21 23 22 21 20 20 18 17 17 16 14 13 13 12 12 12 12 12 11 10
21 25 25 24 25 26 24 24 22 24 25 25 25 27 28 27 22 19 21 23 24 23 22 24 25 23 21 23 22 21 20 23 23 19 19 21 20 19 17 16 17 16 16 14 11 10 11 11 10 9 10 11 10 9
21 22 26 30 28 27 26 26 27 26 24 24 27 26 26 21 17 20 25 23 24 22 21 22 22 21 19 18 18 19 20 21 20 19 19 18 17 17 16 13 11 13 14 12 10 9 8 8 8 9 9 11 11 9
25 27 22 24 27 28 24 25 25 25 26 29 29 21 20 19 18 21 22 23 22 21 20 19 18 18 18 17 19 19 18 17 16 17 17 17 16 15 13 14 13 9 9 9 8 8 8 8 8 9 9 8 7 8
26 28 27 20 24 26 25 25 26 27 27 28 25 20 17 18 18 19 20 21 23 22 19 17 16 17 16 15 14 15 16 17 16 13 12 13 14 14 14 13 12 12 11 9 8 8 9 9 9 7 6 5 6 6
25 28 26 21 21 23 26 28 27 26 26 24 23 20 18 16 16 18 19 19 17 14 13 13 13 16 13 15 13 13 12 13 11 11 11 9 10 11 11 11 10 10 9 8 7 7 7 7 7 7 5 5 5 3
27 28 25 25 23 26 25 25 28 26 23 20 19 18 15 15 16 15 15 14 15 15 16 14 12 13 13 12 13 12 11 11 7 8 8 9 9 10 10 10 10 9 8 6 5 5 4 4 5 3 3 1 -0 -1
25 22 22 21 23 23 22 23 22 24 23 19 14 15 14 15 10 13 12 14 15 13 4 11 13 12 10 11 9 10 1 9 9 8 7 8 10 11 10 10 8 7 6 5 5 4 2 2 2 2 1 0 -1 -2
22 22 22 22 22 22 18 18 17 17 17 15 13 13 12 13 7 12 13 11 12 12 11 11 12 11 9 7 9 10 4 10 6 4 4 3 2 4 6 8 8 6 4 4 4 3 1 1 1 0 0 -2 -3 -3

GFSWCAN_sfc_temp_045.txt.gz
Temp
49 49 49 49 49 49 50 50 49 49 50 50 50 50 50 51 52 56 60 67 62 65 64 66 72 69 70 70 59 63 60 60 59 51 51 53 48 54 54 59 51 48 45 40 45 36 37 65 62 53 60 66 65 66
49 49 49 49 49 49 49 50 49 50 50 50 50 50 51 51 51 55 55 68 70 69 61 67 66 67 68 73 72 65 67 64 65 60 54 53 43 42 52 48 62 51 57 54 55 54 63 67 65 67 67 64 64 64
49 49 49 48 48 48 48 48 49 49 49 49 50 50 50 50 52 57 61 68 71 60 61 64 63 66 70 69 71 66 67 71 68 69 61 56 43 56 41 52 56 61 61 55 54 62 64 64 66 66 66 63 65 65
48 48 47 48 48 49 49 49 49 49 49 49 50 50 50 50 52 54 60 63 69 60 47 55 68 62 68 70 70 70 70 67 67 68 55 45 45 61 53 57 57 61 60 58 57 63 63 62 61 61 61 63 63 63
48 48 48 48 48 48 48 48 48 49 49 49 50 49 50 52 52 56 59 59 62 66 49 52 62 64 68 69 68 69 68 66 63 56 45 50 57 54 53 54 53 63 59 52 52 57 56 59 57 59 58 58 59 58
47 47 47 47 47 47 48 48 48 48 49 49 49 50 51 53 54 65 58 59 61 69 57 47 59 58 65 67 67 66 68 67 67 55 50 58 56 57 43 50 55 57 57 57 57 58 58 57 57 58 55 55 55 53
48 48 47 48 48 48 48 48 48 48 49 49 50 51 52 53 65 59 60 58 55 66 55 45 47 57 59 63 61 64 64 62 63 55 46 53 54 58 42 48 53 53 55 56 57 57 52 55 50 52 50 48 46 45
48 48 48 48 49 49 49 48 48 49 50 50 51 52 52 51 51 58 56 50 54 61 61 43 42 48 58 51 48 59 54 60 52 48 48 46 50 48 46 49 50 52 55 54 54 56 53 51 49 47 45 43 41 40
48 49 48 48 49 49 49 50 50 51 51 51 51 51 60 60 60 58 49 51 61 60 52 39 40 38 54 48 50 50 56 42 53 43 45 49 42 41 43 46 46 47 47 49 49 48 47 45 43 43 44 43 42 43
47 47 47 47 47 48 48 50 50 50 50 49 62 63 53 56 49 51 56 55 57 54 51 39 48 40 50 45 42 45 44 42 39 42 50 42 38 42 44 44 45 48 49 46 41 39 38 38 41 43 45 48 48 46
47 47 47 48 48 47 47 48 49 49 50 60 55 49 57 51 59 53 45 48 52 40 44 44 48 42 49 42 38 44 39 42 36 41 41 38 36 37 42 43 47 50 48 47 46 44 47 47 45 45 45 45 43 43
47 46 47 47 47 48 49 48 51 56 56 56 55 57 58 56 49 40 37 39 40 37 39 39 42 45 43 53 44 45 38 41 34 46 39 36 35 39 41 43 46 48 48 47 48 47 47 47 47 46 45 43 41 41
45 46 46 46 46 47 47 47 48 49 49 61 55 43 50 40 37 36 34 35 35 37 38 40 36 42 43 49 40 40 34 36 46 35 36 36 37 38 41 44 45 48 47 47 47 48 47 44 43 43 40 40 39 41
45 45 45 45 46 46 47 48 49 55 59 48 40 35 37 34 35 36 37 36 35 37 39 40 37 39 40 37 39 35 34 40 33 32 33 34 36 38 44 46 45 43 39 44 44 43 41 40 38 35 33 33 33 35
44 44 45 44 45 46 46 48 49 55 50 42 41 32 32 33 34 34 35 36 36 39 41 39 40 43 36 36 37 35 32 31 34 34 34 34 36 41 43 45 43 39 36 41 43 38 34 36 38 37 37 37 34 31
45 45 41 44 45 45 46 48 48 50 44 38 36 33 33 33 32 33 33 33 38 38 44 46 38 36 34 36 33 34 34 34 33 36 35 36 37 41 43 43 43 44 43 42 41 38 36 34 34 37 36 34 32 31
45 40 43 44 45 47 47 47 44 38 38 36 32 34 34 33 32 32 34 34 38 37 34 39 34 32 38 34 32 38 33 35 35 36 36 37 37 41 43 42 37 41 41 41 40 39 38 37 35 35 34 35 35 35
45 46 44 45 48 49 47 47 44 40 33 35 33 32 33 33 34 33 34 35 36 36 39 36 41 33 33 32 33 36 35 37 37 38 38 38 40 40 43 42 42 42 40 39 38 37 36 34 36 36 34 34 34 34
44 44 43 45 49 47 41 41 45 34 34 35 35 35 35 34 36 37 36 39 43 46 43 41 35 35 34 38 35 34 35 37 35 34 34 36 35 34 36 39 39 39 38 37 38 37 35 33 33 33 32 31 29 30
43 43 43 45 49 45 36 38 47 39 34 34 36 34 35 34 36 35 35 40 43 43 36 34 31 31 31 33 36 40 40 40 39 36 33 35 36 36 35 36 38 37 35 34 32 32 34 34 32 30 28 27 25 24
46 45 45 49 46 43 39 39 38 38 38 35 36 38 34 37 34 34 34 41 35 31 31 31 31 33 36 37 40 41 42 43 40 41 38 36 37 37 37 36 36 36 34 33 31 29 28 28 28 27 25 24 23 24
44 44 43 44 39 38 38 41 39 41 38 36 37 38 33 32 32 32 36 35 31 31 32 31 32 35 36 35 37 38 38 37 35 34 35 35 34 33 33 33 33 29 29 28 28 25 26 25 23 22 22 22 23 24
43 44 38 37 33 33 30 42 34 37 32 33 37 32 32 32 35 40 32 33 31 34 34 33 31 32 32 33 34 34 36 36 34 32 32 31 31 30 29 29 29 27 25 24 26 24 22 19 22 19 21 21 22 21
42 34 30 31 32 27 32 30 35 34 34 32 32 28 30 32 37 33 28 27 29 32 33 33 34 31 31 29 27 27 29 30 29 29 30 29 27 26 26 25 24 23 23 23 23 22 21 20 18 20 19 18 18 17
32 28 31 28 32 30 28 28 29 31 27 29 29 28 29 33 29 27 26 26 27 27 28 31 31 30 28 27 26 24 26 27 25 23 25 26 25 25 24 24 22 21 21 20 19 18 18 18 18 17 16 16 15 14
25 27 27 28 29 29 29 27 26 26 28 27 27 30 31 29 25 22 24 24 25 25 24 25 28 27 23 25 23 21 22 25 25 21 22 25 25 24 22 22 22 20 21 19 17 15 16 16 14 13 14 15 15 14
24 25 29 34 31 32 29 30 32 30 27 26 28 28 29 23 21 22 26 25 25 24 25 24 25 24 22 21 21 21 21 22 21 21 22 22 22 21 20 18 16 17 18 16 15 14 13 13 13 13 13 15 15 14
28 29 25 28 30 32 27 28 28 26 27 30 30 24 23 22 20 23 24 25 25 26 24 24 23 23 22 22 22 22 22 22 20 21 22 21 21 20 18 19 17 12 15 15 13 12 12 12 12 13 13 12 11 13
28 30 30 24 28 29 27 27 27 27 29 29 27 23 20 20 20 23 23 24 26 26 23 22 21 22 21 21 20 21 21 21 20 16 16 17 18 18 18 17 17 17 16 15 14 13 13 11 11 11 10 10 11 11
27 30 29 26 25 25 26 28 26 27 28 27 27 23 21 19 19 23 23 22 21 19 19 19 20 21 19 20 18 17 18 17 15 14 13 13 13 15 16 15 15 15 14 14 12 13 13 12 12 12 11 10 10 9
31 31 28 28 25 26 27 29 29 28 27 24 24 22 19 18 19 19 19 19 20 20 20 19 18 19 18 16 17 16 16 16 13 13 12 13 14 14 15 14 14 14 13 12 11 10 10 8 9 9 9 8 7 5
29 25 26 24 25 27 29 28 27 27 25 24 20 21 19 20 15 16 16 19 19 18 13 18 17 15 15 16 16 17 8 13 14 12 12 12 13 14 14 14 13 13 12 10 9 9 9 8 7 7 7 6 5 3
27 27 26 26 26 25 25 25 25 22 22 20 18 19 17 17 12 15 18 18 16 15 15 16 17 17 14 13 13 14 13 15 13 12 11 9 7 8 9 12 13 12 10 9 9 9 8 7 6 6 5 4 3 2

GFSWCAN_sfc_temp_051.txt.gz
Temp
48 48 48 47 48 48 48 48 48 47 49 50 50 50 51 51 51 51 49 50 48 47 50 56 62 59 60 53 43 49 48 48 46 39 39 35 33 41 41 48 41 37 33 28 32 31 30 57 55 44 47 52 53 53
48 48 47 47 48 48 48 48 47 48 49 50 50 50 50 51 51 52 45 52 53 46 48 55 58 58 66 61 51 48 50 52 51 45 41 39 37 35 39 33 51 37 43 37 40 37 50 54 52 53 53 51 51 51
47 47 47 48 48 48 48 48 48 49 49 49 50 50 50 50 51 51 47 50 50 46 48 50 53 61 64 61 61 49 48 56 58 56 46 42 36 39 33 35 41 50 55 44 45 51 51 51 53 54 54 52 52 52
47 47 48 48 48 48 48 48 49 49 49 49 49 49 50 50 51 50 47 51 51 46 40 49 62 58 64 65 62 60 61 60 59 53 41 38 37 49 36 44 43 48 51 49 47 49 49 49 51 51 52 52 48 47
47 48 48 48 48 48 48 48 48 48 49 49 49 49 50 50 50 50 49 51 52 48 42 47 55 60 64 62 62 64 60 57 50 43 36 39 45 42 41 40 36 51 49 39 37 47 46 45 48 50 47 46 46 44
48 48 48 48 48 48 48 48 48 48 48 48 49 50 50 50 50 49 44 50 52 54 48 38 52 52 60 62 60 55 58 57 51 43 37 45 51 42 34 31 48 50 52 51 47 50 47 46 46 47 44 43 44 42
47 47 47 47 48 48 48 48 48 48 48 49 48 49 50 49 50 48 48 50 53 55 46 38 40 51 54 53 50 53 54 49 49 44 40 42 44 43 36 33 47 50 51 51 52 49 43 45 40 44 43 43 43 42
46 46 47 46 47 47 47 46 48 49 48 49 49 49 49 50 50 50 52 49 50 51 48 37 37 42 51 42 41 49 46 45 45 44 42 36 40 35 34 44 48 50 49 47 47 48 44 44 43 43 43 42 41 39
46 46 46 46 46 46 46 46 47 48 48 49 48 48 49 49 48 51 51 49 52 50 39 35 36 35 49 44 42 44 45 37 44 37 40 39 36 35 42 43 45 47 45 44 46 44 42 41 42 43 42 39 36 39
46 46 46 46 46 47 47 47 48 48 48 49 49 49 42 48 49 50 51 47 46 44 42 35 42 37 44 38 37 37 37 36 34 37 43 35 33 42 42 44 44 45 46 45 40 38 39 39 40 41 42 42 41 39
47 47 46 47 47 47 47 47 48 49 49 50 47 41 47 48 48 44 37 37 38 34 38 40 40 39 45 36 35 37 35 34 29 33 34 32 32 39 44 45 47 47 44 44 44 43 44 43 40 39 39 37 34 32
47 47 48 47 47 47 48 48 48 50 51 51 49 50 49 46 40 35 33 35 35 33 36 36 38 41 38 45 35 37 35 33 29 37 34 28 34 40 42 43 44 44 44 45 46 44 44 44 42 39 36 33 31 30
46 46 47 48 48 48 48 49 50 51 56 53 46 39 42 35 33 29 29 33 32 33 36 35 34 35 38 39 35 35 34 30 32 30 28 31 37 41 42 43 43 45 44 43 41 40 39 36 35 34 32 32 30 29
45 45 45 46 46 47 48 49 50 50 50 40 36 32 33 32 31 30 32 33 33 33 35 36 34 34 34 34 33 32 33 34 29 23 27 33 37 40 42 43 42 40 37 37 36 34 32 32 30 30 28 28 27 27
45 45 45 44 46 47 48 49 50 49 42 34 34 29 29 31 32 33 33 33 34 36 36 35 35 36 33 33 33 33 31 30 28 27 32 35 37 40 39 38 37 35 35 35 35 32 31 30 30 30 29 29 27 22
47 46 43 44 46 48 48 48 47 45 38 34 32 32 33 32 32 32 33 33 36 35 35 34 33 33 32 33 32 31 28 26 30 31 34 37 38 38 38 37 37 37 35 33 33 33 32 30 29 29 29 27 21 20
45 39 44 45 46 48 48 44 39 35 33 32 30 32 32 32 31 32 32 33 35 34 33 33 30 30 33 31 30 31 28 31 32 33 35 37 36 35 36 36 35 35 34 33 32 32 31 32 29 29 28 29 28 27
40 43 45 47 47 46 44 42 36 34 30 31 29 31 32 32 32 32 33 34 34 33 33 33 35 32 30 28 28 31 31 33 34 34 35 36 37 37 39 38 38 36 34 33 33 32 32 29 29 27 27 28 27 26
42 44 46 47 48 42 36 37 39 30 31 32 32 32 32 32 33 35 35 36 35 36 34 33 27 25 26 28 30 32 32 32 31 32 33 35 35 35 35 34 33 32 32 32 31 28 27 28 26 25 24 24 21 20
47 45 45 47 48 37 34 34 40 33 30 31 32 32 32 32 33 33 34 34 35 32 28 26 25 27 28 29 31 32 32 33 33 31 30 32 33 33 33 32 30 30 30 29 28 27 26 25 26 24 22 20 15 13
42 42 44 44 39 38 34 33 33 33 32 32 32 33 32 33 32 32 31 33 29 27 25 27 28 29 30 29 30 33 33 35 33 32 31 30 32 31 31 31 30 29 27 25 24 23 21 20 21 20 11 8 9 10
39 44 35 38 34 34 32 35 33 34 33 32 32 32 30 30 30 31 31 26 26 27 28 27 28 28 28 27 28 30 31 31 32 32 33 32 28 28 28 27 24 22 22 22 22 19 19 19 18 16 8 7 10 10
42 39 34 33 29 29 28 34 30 32 27 29 31 29 28 27 30 32 24 27 26 28 29 30 29 29 27 27 28 28 29 28 27 26 26 25 24 23 21 22 23 20 19 20 22 20 17 16 14 9 8 6 6 2
40 32 28 27 27 26 28 26 30 29 28 27 25 23 25 25 30 23 21 22 23 26 25 27 29 27 26 24 22 23 26 26 24 25 25 23 21 20 20 19 19 19 20 20 19 16 15 10 10 8 1 -1 -2 -1
25 24 26 23 27 23 21 26 24 24 21 24 22 23 23 28 23 20 20 21 19 19 20 24 23 23 21 20 20 20 22 23 20 18 19 23 20 19 18 18 17 17 18 14 12 9 7 4 1 -1 1 -3 2 -1
23 26 25 25 26 23 23 22 21 24 22 19 24 27 25 22 15 15 18 18 16 17 17 19 20 19 17 19 17 17 17 22 21 16 17 18 17 18 17 15 12 12 15 11 6 3 3 2 -2 -1 -3 1 2 3
22 24 28 31 29 28 23 25 26 21 18 20 20 21 23 10 10 17 20 20 19 19 20 20 20 19 18 18 19 18 18 19 18 18 19 18 18 17 13 8 3 7 9 5 -1 -3 -5 -5 -5 -4 -4 4 2 -1
26 27 23 27 24 27 24 22 17 17 17 23 24 12 11 9 11 18 20 22 20 21 21 20 20 19 18 18 17 16 17 16 15 16 16 16 13 10 7 6 7 11 7 5 -1 -0 -3 -3 -6 -6 -4 -6 -7 -6
26 29 24 23 26 24 21 20 21 22 24 23 14 12 12 16 18 19 21 21 22 20 18 17 17 16 16 15 13 12 10 9 6 2 -0 2 3 4 3 2 3 1 1 1 8 9 7 4 4 1 -4 -0 1 -2
25 28 25 23 20 20 22 22 19 22 24 19 17 17 15 14 16 19 18 18 16 13 16 16 15 12 11 10 7 5 3 1 2 -3 -6 -7 -4 1 2 6 1 0 3 -2 -3 -1 5 0 0 -4 -5 -4 1 -1
29 24 22 20 21 23 25 25 24 18 15 15 15 8 10 9 10 15 14 15 15 17 13 7 7 7 5 3 -0 -2 -1 -1 1 -1 -2 -3 -2 1 6 6 5 -2 -1 4 -2 -5 -7 -6 -4 -2 -7 -8 -7 -4
26 23 15 15 17 24 26 25 24 21 19 11 10 8 9 10 3 6 12 14 11 10 7 7 3 0 -1 0 3 1 -1 1 3 -2 -1 -3 -4 -6 -5 -4 -2 4 2 3 2 -1 -1 -4 -4 -1 -2 -4 -9 -10
19 17 16 16 19 17 15 17 17 12 12 9 10 10 4 3 1 6 11 8 5 3 3 4 6 8 6 3 0 1 5 1 1 8 8 5 -2 -2 -6 -7 -9 -10 -9 -9 -10 -9 -6 -0 1 0 -1 -5 -10 -7

GFSWCAN_sfc_temp_057.txt.gz
Temp
49 49 48 47 47 46 47 48 48 48 48 48 48 49 49 50 50 45 46 49 46 43 46 48 49 48 48 51 41 45 47 45 40 36 37 34 32 38 37 42 38 37 32 27 27 24 31 50 48 43 45 44 48 47
47 46 46 46 46 46 48 48 48 47 47 48 48 48 47 47 48 47 44 49 51 44 44 48 49 51 50 52 52 46 46 46 46 40 38 36 34 32 35 33 45 39 40 36 38 37 46 47 49 47 48 47 46 47
45 45 45 46 46 47 47 47 47 47 47 47 47 48 47 47 48 47 47 47 46 41 41 44 46 52 55 53 55 46 45 51 48 48 42 40 35 37 33 34 39 44 46 39 41 44 43 45 45 46 47 45 46 47
46 46 47 47 47 47 47 47 47 47 47 48 48 47 48 48 48 50 47 47 45 43 37 42 57 53 57 56 55 55 55 52 49 46 40 37 34 44 38 42 40 46 47 40 38 41 45 45 43 42 42 42 42 42
47 47 47 47 47 47 47 47 47 47 47 47 48 48 48 49 51 49 48 48 49 44 39 38 50 55 57 54 54 56 54 50 44 40 35 37 39 40 36 39 39 47 43 39 37 45 44 43 42 43 42 40 41 40
46 46 46 46 46 46 46 46 46 46 47 48 48 48 49 50 50 47 41 45 50 50 42 35 47 49 54 54 53 54 53 49 47 43 39 44 46 40 35 34 45 46 47 48 47 49 42 41 41 42 40 39 39 39
46 46 47 47 46 46 45 46 46 46 47 48 48 49 49 49 48 42 38 43 51 50 42 35 37 48 51 51 48 49 48 46 46 43 38 40 41 41 31 31 42 44 43 43 44 43 38 39 36 39 39 39 39 37
47 47 47 46 46 46 46 47 48 48 48 49 48 49 49 50 49 42 48 50 50 46 45 35 36 40 49 43 43 45 42 43 44 42 40 33 39 35 35 39 41 44 44 43 41 43 41 39 38 37 38 38 35 34
46 47 47 47 46 46 47 47 47 48 48 48 48 49 48 43 39 44 49 50 49 45 36 33 34 34 45 41 40 41 42 36 42 34 38 40 35 36 40 40 41 42 41 37 39 39 38 36 36 36 37 35 33 32
46 46 46 46 46 46 46 47 47 48 48 48 46 41 35 40 49 49 47 43 44 43 41 35 40 35 43 36 35 37 36 35 34 37 40 34 34 39 40 43 42 41 40 40 35 33 35 34 35 35 35 36 35 32
46 46 46 46 46 46 47 47 47 48 49 41 40 38 45 50 45 42 35 34 36 33 36 37 39 38 42 36 35 35 34 33 33 35 35 32 33 36 40 41 42 43 42 41 42 41 41 39 37 35 35 33 32 31
46 46 46 46 46 47 47 47 47 45 43 44 45 48 47 44 38 34 32 33 34 33 35 36 37 40 37 41 35 35 34 32 31 37 33 32 33 38 39 39 40 41 42 42 43 41 41 40 39 35 33 31 30 30
46 47 47 46 46 47 47 47 48 47 48 46 44 37 39 33 32 31 29 30 31 33 35 35 34 35 36 36 33 31 26 28 34 32 31 32 37 39 40 41 41 43 41 40 40 39 37 35 34 32 30 29 29 29
46 46 47 47 47 47 46 47 47 47 46 37 35 30 31 30 30 30 32 33 33 33 34 35 33 34 33 32 30 29 32 33 20 22 27 33 37 38 39 39 38 36 35 35 35 34 32 31 30 29 29 28 26 26
46 46 47 46 47 47 47 47 47 45 39 33 33 28 29 31 32 32 33 33 33 35 34 34 34 35 32 32 30 32 30 28 23 24 31 34 37 37 36 35 33 32 32 32 32 31 29 29 29 28 28 29 26 22
47 46 43 46 47 47 46 45 43 41 36 33 31 31 32 32 31 32 32 33 35 33 33 33 32 31 30 31 30 28 25 26 28 31 33 36 35 35 35 34 34 33 32 31 30 30 29 28 27 28 27 25 22 21
45 40 44 46 46 46 46 42 36 32 33 31 29 32 32 31 31 32 32 32 35 33 31 30 31 30 31 29 27 29 26 29 31 32 33 34 33 32 32 32 31 31 31 30 30 30 30 30 27 26 24 25 26 23
40 42 46 46 46 45 42 40 33 33 30 31 29 30 30 30 30 30 32 33 30 31 33 30 32 24 22 24 25 29 30 31 32 32 32 33 33 33 34 33 32 32 30 31 30 30 29 28 28 26 27 26 23 23
42 43 45 46 45 40 35 35 36 29 30 31 32 32 31 30 30 31 31 32 33 32 30 27 22 21 21 25 25 29 30 31 30 31 31 32 33 33 32 32 31 31 30 30 29 28 27 27 25 25 23 23 20 19
44 44 44 45 46 36 33 33 37 32 29 31 31 28 28 28 29 29 29 31 31 29 25 22 21 22 23 25 27 30 31 32 32 30 29 30 30 30 30 29 28 27 26 25 25 24 23 22 22 21 20 19 16 14
40 39 41 42 38 36 33 32 32 32 32 31 32 31 26 28 25 24 25 29 26 24 22 23 22 24 26 26 27 28 29 31 30 30 28 26 27 27 27 26 26 24 22 21 20 19 19 19 19 19 16 13 13 14
35 40 30 34 32 33 32 33 32 33 32 31 31 31 28 24 23 24 27 21 20 21 23 23 23 23 23 23 24 26 26 26 26 24 24 25 22 21 21 22 22 19 19 19 19 17 17 18 18 17 14 12 14 13
37 35 28 28 25 26 28 33 30 31 27 28 29 27 26 26 26 30 19 21 20 22 24 24 23 23 22 23 25 24 24 24 21 21 20 20 20 19 19 19 20 18 17 18 19 17 15 16 14 12 12 11 10 5
36 24 21 21 23 16 24 25 29 28 27 25 25 23 25 24 26 20 14 15 18 21 21 21 22 20 21 21 18 18 20 22 20 19 20 18 16 15 16 15 15 15 15 15 13 11 10 9 9 8 4 -0 -0 -2
22 20 18 14 19 19 15 15 18 21 20 22 21 21 22 23 16 14 12 14 15 15 17 19 19 18 16 16 16 17 19 19 16 13 16 18 15 14 13 12 11 12 12 8 5 3 3 2 0 -1 -0 -8 0 -5
15 19 21 15 19 17 15 13 15 16 13 12 17 20 17 14 10 9 14 14 14 15 15 15 15 14 13 15 13 13 15 18 16 11 12 13 13 11 8 6 6 6 7 1 -2 -6 -6 -10 -12 -11 -13 -8 -6 -11
16 17 21 27 22 22 16 13 17 13 11 12 14 11 7 2 3 12 18 18 16 17 17 17 16 14 13 13 13 13 14 14 13 12 12 11 10 9 3 -1 -2 4 4 -3 -8 -8 -7 -10 -13 -11 -12 -17 -16 -15
24 24 15 13 12 16 9 5 8 10 12 18 10 0 -2 -1 6 14 16 18 17 17 15 14 13 11 9 8 9 9 10 9 9 8 7 7 6 6 6 6 5 8 2 -0 -6 -10 -10 -5 -6 -7 -10 -8 -8 -14
18 16 15 8 8 10 12 9 10 14 15 12 -1 1 4 10 10 13 16 17 16 15 12 10 6 3 4 5 3 2 3 -2 -3 -7 -13 -14 -10 -4 -1 -2 -3 -4 -7 -8 -2 3 1 -3 -7 -9 -10 -12 -7 -10
12 13 10 3 5 8 8 11 7 4 12 8 12 12 10 9 12 15 14 12 9 5 2 1 1 -1 -11 -6 -8 -2 -5 -10 -8 -9 -13 -13 -10 -8 -15 -16 -14 -14 -15 -15 -13 -10 -2 -11 -8 -12 -13 -12 -15 -18
11 10 7 7 10 8 10 10 13 7 -1 1 -3 -1 0 4 6 11 10 8 6 1 -1 -5 -5 -13 -5 -10 -14 -13 -9 -5 -7 -8 -9 -12 -15 -16 -17 -17 -17 -20 -20 -19 -19 -19 -18 -19 -19 -18 -16 -14 -11 -11
5 -3 4 5 9 10 11 11 1 0 -6 -5 -4 -8 -4 -6 -6 1 5 2 3 1 -6 -12 -8 -3 -11 -13 -13 -11 -6 -9 -11 -11 -9 -9 -9 -12 -15 -16 -19 -19 -19 -21 -22 -21 -20 -19 -21 -22 -23 -20 -18 -16
1 -1 -2 1 7 8 12 14 7 3 -0 -1 -1 -1 -5 -8 -8 0 3 -4 -6 -9 -9 -9 -10 -9 -4 -8 -11 -12 -11 -15 -14 -3 -3 -3 -7 -8 -14 -18 -19 -19 -18 -20 -21 -21 -19 -18 -22 -23 -24 -24 -24 -22

GFSWCAN_sfc_temp_060.txt.gz
Temp
49 48 48 48 49 49 49 48 48 48 48 49 49 50 50 50 49 44 42 46 43 41 45 46 48 45 48 48 38 42 46 43 37 35 34 32 30 38 37 41 39 38 34 29 27 25 31 49 47 43 45 42 45 46
48 46 48 49 49 48 47 47 48 48 48 49 49 50 50 50 49 47 39 46 49 44 43 47 47 49 55 55 50 45 45 44 44 40 36 34 32 32 37 34 44 37 42 37 40 38 46 47 47 46 47 46 46 46
46 46 46 46 46 46 47 47 47 48 48 49 49 49 49 49 49 47 42 45 45 41 43 44 44 50 51 51 54 45 43 49 46 47 41 39 35 37 33 35 38 44 46 40 41 44 44 44 44 45 45 44 45 45
45 45 46 46 46 46 46 47 47 47 48 48 48 48 48 48 49 48 43 45 46 43 36 41 52 50 54 53 52 53 52 49 47 45 38 37 35 43 35 42 39 44 46 41 40 42 44 45 42 43 42 43 42 42
45 46 46 46 46 47 47 47 47 47 47 48 47 47 48 49 48 46 44 47 48 43 37 38 46 53 55 52 51 51 51 48 43 39 35 37 39 39 36 37 31 45 44 40 42 48 47 44 41 42 41 40 41 40
46 46 46 46 46 46 46 46 46 47 47 47 47 48 48 48 48 43 38 47 49 48 40 33 43 45 50 52 51 48 50 47 45 41 37 41 44 40 34 32 44 47 48 48 48 47 41 40 40 41 39 38 39 38
46 46 46 46 46 46 46 46 46 46 47 47 47 48 48 48 45 41 38 45 49 48 39 34 36 45 49 51 48 48 47 44 45 42 36 40 40 40 30 32 43 42 43 43 43 43 39 40 37 38 38 37 38 37
46 46 46 46 46 46 46 46 46 47 47 47 48 47 48 48 47 41 47 50 51 45 43 34 35 38 48 43 42 46 43 43 43 41 38 34 39 33 36 39 39 40 40 39 38 40 40 38 37 36 37 37 34 33
46 45 45 45 45 46 46 46 46 47 47 47 48 48 46 43 39 41 49 49 49 44 34 32 33 30 43 40 40 41 43 36 40 35 37 39 33 36 39 38 39 41 41 36 37 38 38 35 34 35 35 34 32 32
46 46 46 46 46 46 46 46 47 47 48 48 47 41 34 39 48 51 46 40 42 41 41 34 39 34 40 35 36 36 36 35 34 36 40 34 34 38 39 43 43 40 39 39 34 33 33 33 33 33 34 35 34 32
46 46 46 46 46 47 47 46 47 49 48 39 36 36 42 49 45 41 34 34 36 34 36 36 37 36 41 35 34 35 34 34 33 35 35 33 32 37 40 40 41 41 40 40 41 41 41 38 35 33 33 33 33 33
46 46 46 46 46 47 47 48 48 45 40 41 44 45 45 43 37 31 33 33 34 33 34 35 37 39 37 40 36 34 32 32 32 36 34 31 33 37 37 37 39 40 41 40 40 39 38 38 37 33 31 31 31 30
46 46 46 46 46 47 47 47 47 47 46 44 43 37 39 34 30 22 27 30 31 33 35 35 34 35 34 37 33 32 30 30 34 33 32 32 37 38 39 40 40 41 40 39 38 37 35 33 32 31 30 30 30 29
46 46 46 46 46 46 47 46 46 45 43 37 33 30 31 29 30 31 32 32 32 33 34 34 33 34 33 33 31 32 32 33 28 27 28 33 36 37 39 39 37 35 34 34 33 32 31 30 30 30 29 28 27 27
46 46 46 46 46 46 46 46 46 44 37 32 33 28 29 31 32 32 32 33 33 34 34 34 34 35 32 31 31 31 30 27 25 23 31 33 35 36 34 34 33 32 32 32 32 30 28 28 27 27 28 28 26 23
46 46 44 46 46 46 46 46 43 41 35 32 31 31 32 32 31 32 32 32 34 33 34 35 32 31 30 31 30 27 27 26 28 30 32 34 33 33 33 32 32 32 31 30 30 29 28 27 27 27 26 24 21 21
45 40 46 46 46 46 46 41 37 32 32 31 29 30 30 31 29 30 31 30 34 34 31 31 30 29 32 28 26 29 25 28 30 31 32 33 32 32 32 31 31 31 30 29 29 28 28 28 27 26 23 24 25 22
40 44 46 45 46 44 41 38 33 32 29 31 27 28 28 28 27 28 30 32 32 33 31 28 31 24 21 22 23 27 30 30 31 31 31 32 32 32 32 31 30 30 29 28 28 28 28 28 27 25 26 24 22 22
42 43 45 45 44 39 34 34 34 29 29 31 30 30 29 28 29 29 30 31 32 32 30 26 18 17 18 22 22 25 29 30 30 30 30 32 32 31 30 30 29 28 28 27 27 25 25 25 24 24 23 22 19 18
42 42 43 45 44 35 32 32 36 32 29 27 28 25 26 25 26 26 26 28 28 27 23 19 17 19 21 23 25 26 31 32 30 27 25 27 28 28 27 26 25 26 25 24 23 23 22 21 21 20 20 19 18 16
41 40 41 41 37 36 32 32 32 32 32 28 30 29 25 26 22 21 22 28 23 21 18 20 20 22 24 24 25 26 26 27 25 27 24 22 24 25 24 24 24 23 21 20 18 18 18 17 18 18 16 15 15 16
36 40 33 36 33 33 32 32 32 32 31 31 30 30 25 22 21 21 25 19 17 19 21 21 21 22 21 21 22 24 24 24 24 23 22 23 20 20 19 20 20 17 17 17 17 15 15 16 16 14 13 13 15 13
37 34 28 29 27 28 27 32 29 30 27 27 28 26 23 22 23 27 16 18 18 21 22 22 22 22 21 21 22 22 22 22 19 19 18 17 17 16 15 15 17 15 14 14 16 14 12 12 11 9 9 9 9 6
35 24 20 19 22 16 23 24 29 28 27 25 25 22 23 22 24 18 12 14 17 19 19 20 21 19 19 18 16 16 19 20 18 17 18 16 13 12 13 12 12 12 12 12 10 8 7 5 5 5 1 -4 -4 -6
22 20 18 14 18 17 14 17 20 21 21 22 21 21 20 23 15 13 11 13 15 14 16 17 17 17 15 14 15 15 17 18 14 11 14 16 13 11 10 10 9 9 10 5 1 -1 -3 -8 -10 -12 -9 -15 -5 -10
17 19 16 14 17 14 15 11 11 16 15 16 17 15 13 10 7 8 12 14 13 14 13 14 14 13 12 13 12 12 13 16 14 9 9 11 10 7 5 4 3 5 4 -3 -7 -10 -9 -11 -13 -9 -14 -10 -11 -17
14 15 19 24 21 19 9 8 13 8 6 8 10 3 4 1 2 11 16 16 14 14 14 14 15 13 11 11 12 12 12 12 10 9 10 9 8 7 4 1 0 3 5 -1 -9 -10 -9 -11 -14 -14 -16 -20 -19 -17
22 17 9 9 8 13 4 3 5 7 8 14 6 -4 -6 -4 4 13 14 16 14 14 12 11 10 9 9 9 8 8 8 7 7 7 7 5 3 3 1 -1 -2 3 -8 -11 -12 -13 -11 -8 -9 -11 -14 -14 -12 -15
10 10 12 4 5 7 9 6 5 9 12 8 -5 -3 1 8 8 11 14 15 15 12 8 5 3 1 4 4 1 -0 -1 -5 -4 -9 -15 -16 -15 -7 -8 -13 -14 -14 -15 -12 -4 2 4 -3 -3 -9 -11 -15 -14 -18
9 10 6 -0 2 3 -1 5 0 1 10 7 10 11 8 7 10 12 11 9 6 2 -2 -3 -9 -9 -14 -9 -10 -4 -7 -13 -13 -10 -14 -15 -11 -10 -20 -19 -17 -18 -21 -22 -20 -15 -6 -15 -11 -16 -16 -17 -19 -21
8 7 6 5 4 1 -1 -0 4 3 -3 -0 -4 -4 -1 2 4 8 6 -0 -5 -10 -4 -8 -8 -17 -12 -14 -16 -15 -11 -9 -14 -13 -12 -13 -14 -17 -18 -19 -20 -23 -23 -22 -24 -23 -22 -23 -25 -26 -25 -21 -20 -21
2 1 3 3 5 9 7 -1 -6 -5 -7 -8 -7 -12 -9 -9 -9 -2 1 -2 -3 -7 -10 -16 -10 -7 -13 -16 -18 -17 -11 -14 -15 -15 -11 -13 -15 -17 -17 -17 -21 -22 -23 -24 -24 -24 -24 -23 -25 -26 -27 -26 -26 -25
-4 -6 -4 -0 4 4 7 6 3 0 -4 -4 -3 -6 -13 -10 -9 -3 -1 -11 -9 -10 -11 -11 -10 -10 -10 -12 -13 -17 -15 -18 -17 -4 -5 -7 -11 -11 -18 -22 -24 -24 -20 -23 -25 -25 -23 -22 -24 -26 -27 -29 -26 -26

GFSWCAN_sfc_temp_063.txt.gz
Temp
47 48 48 47 46 47 48 49 50 50 49 49 49 49 50 50 51 49 42 46 42 40 42 46 49 47 49 48 40 43 46 46 40 37 36 37 35 42 42 44 40 41 38 35 34 34 37 52 52 48 54 52 53 52
46 47 48 48 48 48 49 49 50 50 49 48 48 48 49 50 50 50 41 46 46 40 43 48 48 51 58 57 50 48 47 46 47 41 39 38 35 35 42 40 46 39 45 42 44 45 52 53 56 55 53 55 51 53
47 48 48 48 48 48 49 49 49 48 48 48 48 49 50 51 50 48 42 44 43 39 43 43 45 51 52 55 60 46 46 51 48 50 43 42 37 40 35 38 42 45 48 44 46 50 50 51 51 51 52 53 53 53
46 46 46 47 47 48 48 47 47 47 47 48 48 49 50 49 49 48 42 44 43 41 35 41 52 50 54 54 56 56 54 51 50 48 40 37 38 46 39 46 44 47 48 45 45 48 47 50 49 50 49 48 48 49
46 46 46 46 46 46 46 47 47 47 48 48 49 49 48 49 50 45 44 45 46 41 35 39 47 53 53 53 53 55 53 50 47 43 37 41 43 42 39 42 40 48 47 44 44 52 53 56 53 48 46 46 47 44
46 46 46 46 46 46 46 46 47 47 48 48 48 48 48 48 47 42 36 44 45 44 38 34 45 46 51 52 50 49 51 50 48 45 41 45 47 45 37 40 49 50 50 49 51 50 45 43 43 46 44 44 44 44
46 46 46 46 46 46 46 46 46 47 47 48 48 48 48 48 44 39 38 44 46 48 38 34 36 45 50 50 50 49 50 49 48 45 41 44 44 45 36 39 49 45 45 46 45 46 43 44 43 42 42 41 41 41
46 46 46 46 46 46 46 46 47 47 47 48 48 48 48 48 47 41 46 49 50 44 41 32 35 41 48 43 42 47 44 45 44 43 40 41 41 38 38 44 42 42 42 42 41 43 43 40 40 38 39 39 37 36
45 46 45 46 46 46 46 46 47 47 47 48 48 48 45 43 40 42 49 49 48 45 34 32 33 34 44 40 41 42 43 35 41 36 39 42 37 38 44 43 42 42 43 38 39 40 40 37 37 37 38 37 35 35
45 45 45 46 46 46 46 46 47 47 47 47 44 39 33 41 48 48 44 40 41 42 38 34 37 35 41 36 37 37 36 34 33 37 41 37 37 42 43 45 44 41 40 40 35 33 35 35 35 35 36 37 36 35
46 46 46 46 46 46 46 46 47 47 46 40 39 37 42 48 44 40 33 33 35 33 37 37 38 37 42 36 35 36 33 33 32 36 37 34 35 39 41 42 43 42 42 41 43 41 42 39 36 34 34 34 33 33
46 46 47 46 46 46 47 46 47 44 42 42 43 45 44 40 37 34 32 33 34 34 35 35 37 39 38 42 36 35 33 32 31 37 34 32 35 38 39 38 39 41 41 40 40 38 37 36 36 35 33 32 31 29
46 46 47 46 46 46 46 46 46 47 46 44 41 37 36 33 30 30 28 31 31 33 35 35 34 37 36 38 33 33 31 31 34 33 32 32 36 37 38 39 39 41 39 38 36 36 35 33 34 32 29 30 30 28
46 46 46 47 46 46 46 46 46 45 42 35 33 30 31 30 32 32 33 34 33 33 35 35 33 35 34 33 33 32 33 32 30 29 28 33 35 37 38 38 36 33 33 33 32 32 31 30 29 28 28 28 27 26
46 46 46 46 46 46 46 46 45 42 36 32 32 28 29 31 32 32 33 33 33 35 35 34 34 35 32 32 32 33 30 28 28 27 31 32 33 34 33 33 32 31 31 30 30 29 28 28 28 27 27 28 27 25
46 46 43 46 46 46 45 44 42 40 35 32 30 29 31 30 29 30 31 32 33 33 35 34 32 32 30 32 30 28 28 26 28 30 32 33 32 32 32 31 31 31 30 29 29 29 28 26 26 26 26 25 23 23
46 41 45 46 45 45 44 40 37 33 32 31 27 28 28 28 26 28 29 29 33 33 31 32 29 27 32 27 25 28 25 28 30 31 32 32 31 30 31 30 30 30 29 29 28 27 26 26 27 27 24 25 25 23
41 45 46 46 45 43 40 38 33 32 29 29 26 26 26 26 25 26 28 30 32 32 31 26 30 23 19 21 21 24 28 30 31 31 31 31 31 31 31 30 30 29 28 27 27 27 28 27 26 25 25 24 24 23
44 45 45 46 44 38 33 33 35 28 26 28 27 27 27 26 26 27 28 29 31 31 29 25 19 17 18 22 21 23 25 30 27 27 27 29 29 28 28 28 27 27 26 26 25 24 24 24 24 24 24 24 21 21
43 44 43 43 43 34 32 32 36 30 25 25 27 24 24 23 24 24 24 27 28 25 20 17 16 18 19 21 23 24 28 31 28 24 23 24 25 25 25 25 25 24 24 23 23 23 22 21 21 21 22 21 20 18
40 39 42 40 35 34 32 32 32 32 30 27 29 28 24 26 21 20 20 26 21 19 16 19 19 21 23 23 24 25 25 26 24 25 23 21 23 24 23 23 23 22 20 20 19 18 18 17 18 18 17 17 18 17
36 40 33 36 33 33 32 32 32 32 31 30 30 28 24 21 20 19 24 17 15 17 20 19 19 20 20 19 21 22 22 22 22 21 20 21 19 18 18 19 19 17 17 16 16 15 15 15 15 15 14 14 15 14
38 35 29 30 28 29 27 33 29 30 26 27 28 24 22 20 21 26 15 17 16 19 21 21 21 21 19 20 21 20 21 20 17 17 16 16 16 15 15 15 16 14 12 13 14 12 10 10 10 9 10 9 10 8
35 23 20 20 23 18 24 23 28 27 26 25 24 20 21 20 23 17 11 13 16 18 18 18 20 18 18 17 14 16 18 19 16 16 16 15 11 11 12 12 11 11 12 11 9 7 6 5 4 6 4 4 3 3
22 18 19 15 16 15 12 15 18 20 20 22 20 18 18 21 13 11 10 12 14 14 15 17 16 16 14 14 14 14 16 17 14 11 14 14 12 11 10 10 9 10 11 7 4 4 3 2 2 2 2 1 2 1
14 15 14 13 16 14 14 11 12 13 13 14 13 14 15 12 9 8 12 13 13 13 12 14 14 12 11 13 12 11 12 15 14 9 9 11 11 9 7 6 6 6 7 5 6 4 3 2 1 1 2 2 -6 -2
13 12 15 21 18 16 8 8 13 8 7 7 8 1 3 -1 2 10 15 15 13 12 13 13 15 13 11 10 11 11 11 10 9 9 9 8 8 8 6 4 3 5 6 3 2 2 2 1 0 -0 -1 0 -1 -3
19 14 6 6 6 11 -0 1 2 4 6 12 5 -5 -7 -5 4 12 13 13 13 12 11 11 10 10 8 8 8 8 8 8 7 7 7 5 4 2 -0 0 -1 1 -2 -2 -0 -0 1 0 0 -1 -2 -2 -3 -3
8 8 10 0 2 3 3 1 1 7 10 6 -4 -3 2 7 8 12 13 13 14 11 7 5 3 4 5 4 2 1 0 3 3 -2 -4 -4 -3 1 -2 -3 -3 -4 -6 -1 -1 5 3 2 -0 -2 -4 -5 -7 -9
7 9 4 -4 -3 -2 -2 1 1 3 9 8 10 9 7 7 9 11 11 10 8 4 1 -1 -4 -1 -3 -1 -2 0 -3 -5 -3 -2 -3 -4 -2 -0 -5 -5 -4 -6 -8 -4 -4 -2 -2 -5 -3 -6 -7 -7 -8 -8
6 6 3 2 -1 -3 -1 -5 -5 2 -3 -1 -3 -3 -1 3 6 7 5 2 1 -1 1 -2 -4 -9 -3 -5 -4 -4 -4 -3 -10 -6 -4 -3 -4 -4 -4 -6 -8 -10 -9 -8 -8 -7 -7 -8 -10 -10 -9 -10 -12 -12
0 -1 1 0 1 3 4 -5 -9 -6 -8 -5 -7 -12 -8 -6 -7 1 3 3 2 -2 -8 -8 -3 -1 -7 -8 -11 -9 -11 -6 -5 -6 -6 -4 -2 -4 -5 -7 -11 -10 -9 -10 -10 -10 -11 -10 -9 -10 -11 -12 -13 -14
-6 -8 -6 -1 2 3 4 4 1 -1 -5 -5 -4 -6 -13 -7 -7 -2 -1 -8 -3 -2 -3 -4 -3 -5 -7 -10 -7 -8 -11 -8 -12 -4 -5 -5 -9 -7 -6 -8 -10 -10 -9 -8 -9 -11 -10 -11 -10 -11 -12 -15 -15 -15

GFSWCAN_sfc_temp_066.txt.gz
Temp
48 48 47 48 47 47 47 48 49 49 50 50 49 49 49 50 50 52 49 54 51 45 52 56 55 50 53 55 48 54 53 53 50 44 44 44 41 46 46 52 47 46 44 41 44 39 39 59 58 57 67 66 70 67
48 48 48 47 47 48 49 49 49 49 50 50 50 49 49 49 50 52 43 51 56 48 47 52 51 57 61 63 58 56 56 55 55 50 49 51 41 42 48 41 56 44 53 52 52 55 60 63 68 70 68 70 65 68
46 48 48 48 47 47 48 48 49 49 50 50 49 49 49 49 50 51 45 48 51 43 47 50 48 57 62 65 70 54 58 62 59 62 53 51 44 50 41 48 52 54 55 52 51 64 61 62 67 62 66 66 66 66
46 47 48 48 48 48 49 48 48 49 49 49 49 49 49 49 50 50 45 51 52 47 35 44 55 52 62 64 67 68 64 62 62 58 52 45 45 57 51 56 52 58 54 55 56 62 57 59 63 66 63 62 60 62
46 46 46 47 47 48 48 49 48 48 49 48 48 48 49 49 49 49 50 53 56 48 36 41 49 55 55 60 62 65 62 59 55 51 41 46 55 52 51 51 50 58 56 49 51 62 60 68 63 66 62 59 59 59
46 46 46 46 46 47 48 48 47 47 48 48 48 48 47 47 49 49 41 49 53 54 38 34 48 47 55 59 60 60 61 59 59 55 52 58 57 55 44 49 61 62 61 63 61 55 57 54 54 55 59 59 59 58
46 46 46 46 46 46 46 46 47 47 47 47 47 47 48 50 54 48 44 49 51 50 38 34 34 46 52 57 57 56 60 57 57 55 52 55 54 55 44 46 60 60 60 58 54 53 55 51 55 52 52 53 53 54
46 46 46 46 46 46 46 47 47 47 47 46 47 48 49 49 50 49 49 49 51 45 40 32 33 39 48 44 43 52 47 50 53 53 49 52 50 50 45 57 62 59 54 52 51 52 53 51 50 49 51 50 48 48
45 45 46 46 46 46 46 46 47 47 47 48 48 48 50 49 46 47 47 49 53 46 35 33 33 33 45 43 44 43 47 39 46 43 47 52 44 43 54 58 57 55 53 53 49 50 49 48 48 48 49 48 45 44
45 45 45 46 46 46 47 47 47 48 48 48 48 43 37 46 47 46 41 41 42 44 41 35 39 34 43 43 40 41 44 39 35 39 49 42 46 57 55 55 57 54 52 51 46 43 43 44 43 44 46 46 45 44
46 46 46 46 46 46 46 47 47 47 48 46 38 36 47 49 44 40 34 35 36 34 41 37 37 39 44 40 38 42 38 38 35 39 38 38 44 51 48 47 50 50 51 49 50 48 48 47 44 41 40 41 39 38
46 46 46 46 46 46 46 47 47 48 45 41 43 48 46 37 35 33 33 33 33 37 39 37 41 44 43 51 41 39 36 36 33 37 34 33 36 41 42 42 46 45 46 45 47 46 42 41 37 34 33 32 31 30
46 46 46 46 46 47 46 46 46 47 46 47 47 38 36 35 31 32 28 33 34 37 40 39 37 42 45 47 37 37 33 35 37 33 32 33 36 39 39 39 38 38 37 37 39 37 35 33 33 32 30 30 30 30
46 46 46 46 45 45 45 45 46 48 47 39 35 30 33 32 35 37 38 39 37 38 37 40 37 43 41 37 37 34 35 37 33 32 29 33 33 35 36 36 34 32 32 32 32 31 30 30 30 31 31 31 30 29
46 46 46 46 46 46 46 46 46 48 43 34 35 30 31 33 33 33 34 36 35 40 39 39 39 40 35 34 35 35 33 30 31 30 32 33 34 34 33 32 31 30 29 29 30 30 30 31 32 30 30 30 29 27
47 47 45 45 46 46 46 47 47 46 38 35 31 29 29 30 28 30 30 32 34 35 36 37 33 33 32 34 32 30 32 28 29 31 32 33 32 31 30 30 30 30 30 30 31 30 30 28 28 29 29 28 26 26
47 44 45 45 45 45 45 46 43 35 33 31 28 29 28 27 25 27 28 29 33 34 32 35 31 29 35 30 28 31 27 29 31 31 33 33 32 31 31 31 31 32 31 30 30 29 29 32 32 30 28 28 28 26
43 44 46 46 46 44 42 39 35 34 28 29 27 27 27 26 25 25 27 29 32 32 33 27 30 25 24 24 25 26 28 29 31 31 31 32 31 31 32 31 32 32 30 29 29 30 30 30 29 28 29 29 28 28
45 45 45 45 45 39 35 34 36 26 26 27 27 27 27 25 26 26 27 29 29 31 28 25 21 19 20 23 23 26 30 30 28 28 28 29 30 30 30 30 30 30 29 29 28 28 28 29 30 30 30 29 27 27
43 43 43 43 44 36 34 34 39 31 27 27 28 25 24 24 25 25 24 27 28 27 22 19 19 21 22 24 26 28 32 31 30 27 26 26 28 28 28 28 27 27 26 26 26 27 27 26 26 26 26 26 25 23
41 40 42 41 38 38 34 33 33 33 32 30 31 30 27 28 25 23 23 29 23 21 19 21 21 23 25 25 27 28 28 29 27 27 25 23 25 26 25 25 26 26 25 24 23 22 22 21 22 23 22 21 21 21
37 41 38 40 36 35 35 35 34 34 34 32 32 32 26 23 23 22 27 21 18 19 22 21 21 23 22 21 22 24 24 23 23 23 23 23 21 21 22 23 24 21 21 21 21 19 18 19 20 20 19 19 19 17
41 41 36 35 32 33 30 39 32 32 29 29 30 25 23 23 23 29 18 19 18 21 23 23 21 21 21 22 21 21 21 21 19 19 18 19 19 20 20 21 22 19 17 17 19 17 15 15 15 16 16 16 16 15
39 30 27 27 30 26 31 28 33 31 31 29 26 21 22 23 26 20 14 16 18 20 20 20 22 20 20 18 17 18 19 19 18 18 19 18 16 16 17 17 17 17 17 17 15 14 14 12 13 13 13 13 12 12
26 21 26 22 27 25 23 23 22 26 23 25 21 20 20 26 18 15 13 16 17 16 18 19 19 19 16 15 16 15 18 18 17 16 18 19 17 17 15 15 14 15 17 15 13 12 11 12 12 11 11 10 9 9
17 19 21 20 21 20 20 18 18 18 20 18 17 20 22 18 13 11 15 16 15 15 15 16 16 15 14 16 14 14 16 20 19 14 14 17 18 17 15 13 12 11 14 14 13 12 11 11 10 9 9 9 5 8
16 18 22 25 23 22 19 20 21 17 14 13 15 14 15 9 9 13 18 18 17 15 16 18 18 16 14 14 15 15 16 16 14 13 14 13 13 14 14 11 8 9 12 11 11 11 10 9 8 8 8 9 9 6
21 22 14 15 15 17 12 12 11 10 12 15 16 6 6 8 10 15 16 17 17 17 16 15 16 17 16 15 15 14 13 12 12 13 12 12 11 10 9 9 7 6 9 8 10 10 9 8 8 7 6 5 5 5
17 20 19 7 11 10 8 8 9 12 14 15 10 8 8 12 14 17 16 17 18 17 15 12 11 14 13 13 12 12 14 15 12 8 8 8 9 8 9 9 9 8 9 10 8 10 8 7 5 4 3 4 4 5
17 21 14 8 5 7 9 12 10 12 15 15 15 13 12 11 13 16 17 17 15 12 11 11 11 14 12 12 10 9 9 9 10 11 9 7 7 8 8 8 8 7 7 8 7 8 5 6 6 6 5 4 4 3
19 21 15 13 9 12 13 13 16 14 14 12 14 11 9 11 13 13 12 12 12 11 12 10 8 10 11 10 11 10 7 7 4 6 8 8 8 8 7 6 6 6 6 6 5 5 5 5 4 2 2 0 -1 -1
17 14 13 10 10 14 13 15 15 14 14 14 11 12 10 11 8 11 11 13 13 12 5 11 11 9 8 7 6 7 -1 7 7 6 6 8 8 7 7 6 5 6 5 4 4 3 1 1 2 1 1 -1 -2 -3
14 16 15 13 11 10 14 15 13 11 12 12 10 9 9 10 6 10 9 8 12 14 11 11 10 9 6 6 7 6 2 7 0 2 1 1 -0 1 7 7 6 4 2 3 3 2 -1 -1 0 -1 -1 -3 -3 -4

GFSWCAN_sfc_temp_069.txt.gz
Temp
47 47 48 49 48 48 48 49 49 49 49 50 50 50 51 50 50 48 46 58 56 50 53 57 58 54 55 55 50 56 53 51 52 46 46 48 46 48 49 52 49 47 45 42 48 43 41 68 63 58 66 73 74 76
47 47 48 48 48 47 47 47 49 49 49 49 50 50 51 50 50 49 45 58 59 51 52 59 63 60 64 63 60 57 55 57 58 52 53 53 46 45 50 43 59 42 54 50 54 54 67 68 70 71 73 70 74 74
47 47 48 47 47 48 48 48 48 49 49 49 49 50 50 50 50 49 50 54 54 47 49 52 53 60 64 64 63 57 57 65 62 66 60 54 46 54 41 49 54 60 64 55 56 63 67 68 70 72 72 71 75 73
47 47 48 48 48 48 48 48 48 48 48 49 50 50 50 49 49 50 52 56 55 49 40 49 63 56 62 59 60 61 63 67 68 65 55 49 48 62 52 57 55 61 64 59 58 63 67 68 66 70 72 71 70 72
46 47 47 48 48 48 48 48 48 49 49 49 49 50 49 48 49 52 55 56 58 53 44 46 55 59 62 55 56 55 58 64 61 55 49 48 59 59 58 56 55 65 61 54 53 65 63 66 65 65 69 70 69 67
46 46 47 48 48 48 48 48 49 49 49 49 49 48 48 49 52 50 39 50 58 57 47 39 53 53 58 58 54 52 57 63 61 57 53 60 65 59 49 49 61 66 68 67 63 63 62 62 60 62 63 67 69 67
46 46 47 47 47 47 48 47 47 48 49 48 48 47 48 50 52 45 46 53 54 59 48 40 42 50 54 54 54 54 55 59 60 56 52 56 59 58 49 47 62 67 68 68 63 59 59 62 60 58 59 61 59 64
46 46 46 46 47 47 47 47 47 47 47 47 47 48 49 49 50 48 53 52 57 54 49 38 36 38 50 40 45 55 52 53 55 53 57 53 55 54 47 59 63 67 67 62 61 60 60 59 58 57 58 57 57 57
45 45 46 46 46 46 46 46 47 47 47 47 47 48 48 47 44 46 49 51 59 54 41 35 35 32 46 47 46 48 52 45 55 48 50 56 50 45 55 60 62 64 63 63 59 58 58 56 56 55 55 55 54 52
45 45 46 46 46 46 46 46 46 47 48 49 51 47 39 45 47 49 42 42 46 48 46 35 40 35 39 39 40 43 47 42 38 43 56 48 49 60 63 61 62 62 61 58 54 52 52 52 53 53 54 54 52 52
46 46 46 46 47 46 46 46 47 48 49 50 44 39 47 48 49 41 36 38 41 36 42 42 40 34 40 37 37 41 38 41 37 40 41 39 45 50 53 55 57 58 59 57 57 57 56 55 52 49 48 47 46 43
47 46 46 46 47 47 47 48 48 51 49 47 49 50 49 42 35 33 33 35 34 36 43 39 35 34 38 47 44 42 38 40 35 40 35 34 34 39 43 47 51 52 52 51 50 47 48 46 42 39 35 32 31 30
46 46 47 46 47 47 47 46 46 46 48 51 50 41 38 34 30 31 29 34 34 40 41 37 34 39 43 46 39 39 36 35 41 34 33 34 35 37 37 37 37 41 42 40 37 35 33 32 32 32 30 31 31 30
46 46 46 46 46 46 46 47 46 48 41 44 36 31 33 32 35 35 38 38 37 40 43 43 39 40 42 39 38 34 36 39 34 33 32 34 34 34 34 34 33 31 31 31 30 31 30 31 31 31 32 32 32 31
46 45 46 45 45 45 45 46 46 46 45 36 36 29 29 32 33 33 35 36 36 43 45 43 42 42 36 36 37 36 33 32 32 31 32 33 34 33 31 31 30 30 30 31 32 32 31 32 32 31 32 32 31 29
46 46 44 45 45 45 46 46 51 53 44 37 32 30 32 32 30 30 31 32 34 36 46 41 36 34 33 35 34 31 33 29 29 31 33 33 31 31 31 31 31 31 31 31 31 32 32 31 30 30 30 30 29 28
48 44 46 46 46 47 47 52 49 40 36 33 30 32 31 31 27 28 29 29 33 36 33 36 32 28 37 33 29 31 27 30 32 32 33 32 31 31 31 32 32 32 32 32 32 32 33 34 34 32 29 30 29 28
46 48 46 46 49 47 46 45 41 37 29 31 28 28 29 28 27 25 27 30 32 33 35 29 36 29 27 26 26 29 31 31 32 32 32 32 32 32 32 32 32 32 31 31 32 33 33 32 32 31 32 32 31 31
47 47 44 45 47 42 36 35 38 28 28 29 30 30 29 27 28 27 28 30 30 32 33 30 24 22 23 25 26 29 31 30 28 29 30 30 31 31 31 31 31 30 30 30 31 30 31 32 32 32 32 31 28 29
43 43 43 44 46 39 34 33 37 31 27 27 29 26 25 25 26 27 26 27 27 25 21 20 19 20 22 24 27 30 31 31 30 27 27 28 30 29 29 29 29 29 30 30 30 29 29 27 28 28 27 27 25 23
42 41 43 46 44 40 35 34 33 33 32 29 30 29 27 28 24 22 23 25 22 21 18 21 22 23 25 26 29 29 29 31 29 28 26 25 27 28 27 28 29 28 27 26 25 24 24 23 24 25 23 22 22 23
39 42 41 45 40 38 37 36 34 35 35 32 32 31 27 23 22 22 25 20 18 20 21 21 22 23 23 23 24 25 25 25 25 26 26 26 24 24 24 25 25 23 23 23 22 21 21 23 23 23 23 22 21 20
43 45 40 39 34 34 31 42 33 34 30 30 32 27 26 25 26 31 20 22 20 24 25 24 22 24 23 23 23 23 23 23 21 21 21 21 22 22 23 23 24 22 20 21 23 21 19 19 19 20 20 21 20 19
42 32 30 30 32 28 34 31 36 33 32 30 27 23 23 25 30 24 17 18 20 24 23 23 25 22 21 20 20 20 21 22 21 21 21 20 19 20 21 21 21 21 21 21 20 19 18 17 18 18 17 17 16 16
29 24 29 26 30 29 27 26 27 29 24 27 23 22 23 30 22 19 16 18 19 19 21 21 22 21 18 18 18 18 20 21 20 19 22 22 20 20 18 18 18 20 22 19 17 16 16 16 16 15 14 12 13 13
20 23 23 24 25 25 25 22 23 23 24 22 21 25 27 23 18 15 17 18 18 18 19 20 18 16 15 17 15 16 19 23 21 16 18 22 22 21 19 17 15 14 19 19 18 16 15 14 13 13 14 13 9 12
21 22 26 30 28 28 25 25 26 23 19 18 21 20 21 14 13 16 20 21 19 20 21 21 20 18 16 16 17 17 18 18 17 16 17 17 17 18 17 14 11 13 17 16 16 15 14 13 12 12 12 13 12 10
25 25 16 20 20 23 17 18 17 15 17 20 22 13 12 13 13 18 19 21 20 20 19 19 20 20 19 20 19 18 17 17 16 17 17 17 16 16 14 13 13 12 13 14 15 14 13 13 12 11 10 10 8 10
23 25 21 11 16 16 14 14 15 16 17 19 17 14 12 16 20 19 20 21 22 21 18 17 17 19 18 18 18 19 20 20 17 13 13 13 13 11 14 14 14 14 15 15 12 12 11 10 8 9 8 10 11 11
21 27 18 13 12 12 13 16 14 18 20 19 18 16 15 15 17 22 22 21 20 17 17 18 19 19 17 16 14 13 14 15 15 16 14 11 10 12 13 13 13 12 13 13 12 13 8 12 11 12 10 9 9 7
28 25 19 18 14 15 17 18 19 19 19 18 20 17 14 15 16 17 18 18 18 17 17 15 15 17 16 16 16 14 10 11 10 11 13 13 13 13 11 11 11 12 12 11 10 10 9 10 10 8 7 5 4 4
23 21 18 13 14 18 20 20 20 18 19 18 15 17 16 17 13 16 16 19 17 16 12 17 15 13 13 13 13 11 11 12 11 11 12 12 12 11 11 11 11 12 10 10 9 9 6 6 7 6 6 5 4 2
23 22 21 19 16 15 18 20 19 16 18 17 16 17 16 16 11 14 16 17 18 18 17 16 16 14 11 11 12 11 12 11 6 8 7 6 4 6 10 12 11 10 7 8 9 8 5 5 5 4 4 3 2 2